GEFSMA_prec_meanprecacc_192.txt.gz
Total_Precipitation_Accumulation
0.79 0.80 0.75 0.79 0.71 0.70 0.79 0.85 0.84 0.85 0.78 0.66 0.61 0.62 0.69 0.63 0.60 0.64 0.80 0.96 1.26 1.48 1.56 1.42 1.25 1.16 1.14 1.11 1.32 1.56 1.87 2.04 1.88 1.80 1.62 1.52 1.72 1.80 1.39 1.27 1.25 1.21 1.24
0.83 0.87 0.83 0.83 0.80 0.75 0.78 0.94 0.88 0.92 0.91 0.84 0.67 0.65 0.68 0.66 0.62 0.65 0.76 0.99 1.13 1.25 1.49 1.66 1.52 1.35 1.22 1.18 1.28 1.51 1.87 1.96 1.72 1.66 1.64 1.55 1.70 1.79 1.44 1.28 1.21 1.14 1.24
0.80 0.84 0.85 0.83 0.82 0.83 0.83 0.88 0.91 0.97 0.89 0.84 0.77 0.72 0.70 0.65 0.59 0.65 0.67 0.76 0.76 0.87 1.12 1.40 1.58 1.50 1.41 1.38 1.40 1.58 1.81 1.78 1.61 1.59 1.62 1.52 1.51 1.65 1.58 1.32 1.18 1.11 1.16
0.86 0.86 0.90 0.92 0.96 0.99 0.96 0.97 1.01 1.04 1.00 0.99 0.97 0.92 0.75 0.73 0.67 0.67 0.67 0.67 0.72 0.68 0.80 0.94 1.16 1.31 1.46 1.58 1.77 1.96 1.84 1.66 1.49 1.46 1.53 1.46 1.43 1.51 1.49 1.37 1.20 1.13 1.09
0.92 1.03 1.07 1.12 1.10 1.11 1.14 1.10 1.12 1.05 1.05 1.06 0.99 0.98 0.85 0.83 0.80 0.68 0.74 0.77 0.75 0.71 0.73 0.66 0.72 0.82 1.05 1.37 1.87 2.17 1.87 1.70 1.54 1.40 1.38 1.35 1.42 1.50 1.39 1.26 1.14 1.07 1.06
1.23 1.37 1.46 1.40 1.39 1.38 1.37 1.33 1.42 1.31 1.13 1.13 1.06 1.01 0.88 0.79 0.86 0.82 0.82 0.81 0.85 0.83 0.77 0.66 0.61 0.53 0.63 0.98 1.54 1.94 1.86 1.76 1.60 1.49 1.38 1.31 1.36 1.41 1.37 1.31 1.20 1.16 1.12
1.61 1.72 1.65 1.74 1.77 1.64 1.63 1.68 1.75 1.70 1.44 1.30 1.38 1.27 1.00 0.76 0.84 0.83 0.80 0.84 0.91 1.02 1.04 0.90 0.76 0.68 0.64 0.72 1.03 1.50 1.78 1.81 1.84 1.68 1.51 1.46 1.42 1.41 1.41 1.39 1.38 1.27 1.19
1.84 1.88 1.96 2.02 2.06 2.05 2.01 1.90 1.98 2.08 1.81 1.60 1.71 1.99 1.57 1.17 0.85 0.69 0.78 0.82 0.93 1.16 1.23 1.06 0.86 0.79 0.76 0.81 0.70 0.93 1.27 1.66 1.86 1.88 1.76 1.67 1.57 1.42 1.40 1.34 1.32 1.30 1.31
2.08 2.10 2.16 2.22 2.22 2.07 2.06 2.15 2.24 2.57 2.39 2.04 1.86 2.11 1.90 1.57 1.28 0.87 0.82 0.88 0.97 1.14 1.26 1.28 1.16 1.08 0.98 0.96 0.88 0.68 0.76 1.15 1.54 1.86 1.94 1.84 1.66 1.51 1.50 1.41 1.25 1.18 1.17
2.01 2.12 2.14 2.13 2.10 2.04 2.10 2.16 2.19 2.57 2.75 2.45 2.14 1.81 1.60 1.57 1.62 1.31 0.98 0.94 1.03 1.05 1.17 1.24 1.19 1.24 1.22 1.19 1.13 0.84 0.71 0.86 1.19 1.67 2.00 2.17 1.92 1.68 1.52 1.49 1.46 1.31 1.18
1.87 1.91 1.93 2.01 2.04 2.09 2.14 2.30 2.40 2.62 2.65 2.65 2.47 2.29 2.08 1.79 1.44 1.48 1.41 1.17 1.13 1.06 1.15 1.27 1.31 1.38 1.39 1.39 1.47 1.16 0.87 0.74 0.92 1.34 1.83 2.22 2.23 2.05 1.82 1.67 1.61 1.54 1.31
1.85 1.79 1.76 1.82 1.94 2.11 2.17 2.25 2.38 2.61 2.71 2.79 2.72 2.46 2.37 2.20 1.91 1.78 1.54 1.39 1.38 1.20 1.18 1.21 1.25 1.38 1.50 1.56 1.48 1.55 1.23 0.84 0.73 1.00 1.32 1.75 2.16 2.33 2.25 2.11 1.97 1.90 1.70
1.56 1.58 1.66 1.75 1.89 2.01 2.09 2.21 2.35 2.39 2.50 2.73 2.74 2.58 2.38 2.16 2.12 2.02 1.90 1.59 1.42 1.26 1.25 1.24 1.19 1.24 1.25 1.50 1.60 1.65 1.33 1.00 0.74 0.75 0.89 1.04 1.39 1.86 2.25 2.32 2.28 2.35 2.32
1.45 1.39 1.43 1.53 1.77 1.97 2.05 2.14 2.16 2.13 2.18 2.36 2.37 2.43 2.40 2.12 2.06 1.96 1.95 2.02 1.75 1.56 1.40 1.23 1.11 1.15 1.18 1.36 1.62 1.69 1.25 1.06 0.86 0.74 0.76 0.86 0.92 1.11 1.50 2.04 2.32 2.43 2.57
1.25 1.20 1.22 1.26 1.39 1.62 1.88 2.04 1.98 1.90 1.87 2.02 2.09 2.18 2.29 2.30 2.22 2.12 2.09 2.14 2.07 1.82 1.63 1.43 1.21 1.09 1.15 1.25 1.61 1.53 1.31 1.13 1.02 0.87 0.79 0.85 0.83 0.88 1.01 1.30 1.60 1.73 1.89
1.05 1.05 1.05 1.10 1.23 1.33 1.54 1.78 1.88 1.83 1.80 1.85 1.96 2.09 2.22 2.32 2.37 2.18 2.14 2.11 1.96 1.86 1.71 1.42 1.20 1.12 1.18 1.16 1.48 1.48 1.43 1.40 1.17 1.02 0.95 0.91 0.92 0.86 0.88 1.00 1.09 1.11 1.07
0.81 0.85 1.02 1.08 1.15 1.22 1.40 1.65 1.83 1.84 1.77 1.77 1.77 1.85 2.02 2.11 2.33 2.30 2.22 2.11 1.97 1.80 1.67 1.51 1.31 1.15 1.19 1.25 1.34 1.44 1.42 1.30 1.11 1.08 0.98 0.94 0.92 0.91 0.88 0.94 1.07 0.99 0.89
0.58 0.70 0.84 0.88 0.92 0.97 1.15 1.44 1.64 1.68 1.65 1.56 1.55 1.67 1.90 2.07 2.28 2.38 2.34 2.20 2.10 1.96 1.85 1.77 1.60 1.39 1.27 1.30 1.40 1.51 1.51 1.41 1.31 1.29 1.15 1.04 0.97 0.91 0.90 0.89 0.96 1.04 0.98
0.61 0.72 0.82 0.88 0.90 0.95 0.98 1.08 1.24 1.36 1.35 1.30 1.33 1.40 1.46 1.67 1.95 2.14 2.16 2.17 2.21 2.18 2.13 1.97 1.77 1.63 1.50 1.39 1.45 1.50 1.51 1.57 1.43 1.41 1.38 1.29 1.21 1.11 1.03 0.98 0.96 0.98 1.03
0.57 0.65 0.72 0.79 0.87 0.93 0.93 0.93 0.96 1.02 1.04 1.09 1.16 1.21 1.25 1.30 1.53 1.71 1.81 1.99 2.22 2.24 2.24 2.17 1.95 1.78 1.64 1.52 1.57 1.67 1.75 1.74 1.58 1.37 1.35 1.29 1.33 1.28 1.17 1.02 0.95 0.94 0.99
0.49 0.56 0.63 0.67 0.72 0.81 0.90 0.91 0.78 0.74 0.81 0.92 0.95 0.94 0.97 1.04 1.18 1.28 1.36 1.71 2.05 2.23 2.22 2.17 2.04 1.94 1.68 1.55 1.42 1.43 1.65 1.89 1.86 1.74 1.61 1.38 1.31 1.24 1.18 1.13 1.02 0.95 0.96
0.46 0.51 0.51 0.55 0.66 0.70 0.84 0.82 0.64 0.61 0.65 0.75 0.84 0.83 0.74 0.74 0.79 0.87 0.95 1.13 1.41 1.66 1.94 2.11 2.04 1.85 1.63 1.52 1.47 1.50 1.55 1.68 1.83 1.71 1.72 1.72 1.63 1.57 1.47 1.33 1.31 1.22 1.12
0.44 0.46 0.45 0.47 0.52 0.66 0.70 0.56 0.53 0.55 0.62 0.67 0.73 0.78 0.71 0.61 0.69 0.75 0.84 0.92 0.94 1.02 1.31 1.65 1.77 1.73 1.79 1.66 1.62 1.56 1.53 1.60 1.66 1.62 1.76 1.81 1.78 1.72 1.65 1.62 1.69 1.54 1.38
0.52 0.50 0.51 0.51 0.50 0.56 0.55 0.45 0.48 0.50 0.55 0.60 0.68 0.77 0.81 0.73 0.73 0.84 0.84 0.88 0.84 0.80 1.00 1.02 1.19 1.49 1.67 1.75 1.72 1.80 1.96 1.93 1.79 1.65 1.61 1.67 1.58 1.56 1.57 1.57 1.67 1.60 1.49
0.49 0.51 0.55 0.56 0.51 0.49 0.50 0.42 0.43 0.50 0.55 0.59 0.60 0.66 0.73 0.71 0.84 0.92 0.93 1.06 1.04 0.92 1.04 1.10 1.14 1.18 1.31 1.47 1.60 1.68 1.76 1.82 1.79 1.69 1.50 1.37 1.33 1.33 1.38 1.40 1.40 1.48 1.46
0.28 0.38 0.41 0.43 0.47 0.46 0.57 0.46 0.46 0.50 0.58 0.67 0.68 0.66 0.79 0.79 0.85 0.84 0.83 1.06 1.08 0.96 0.87 0.93 0.94 0.92 0.88 0.99 1.21 1.38 1.59 1.69 1.66 1.58 1.34 1.21 1.18 1.22 1.21 1.07 1.00 1.04 1.05

GEFSMA_prec_meanprecacc_198.txt.gz
Total_Precipitation_Accumulation
0.80 0.81 0.76 0.80 0.72 0.71 0.80 0.86 0.85 0.87 0.79 0.67 0.62 0.62 0.70 0.65 0.61 0.66 0.83 1.00 1.32 1.57 1.65 1.48 1.30 1.19 1.16 1.15 1.34 1.58 1.90 2.07 1.93 1.84 1.64 1.54 1.75 1.84 1.43 1.31 1.30 1.25 1.29
0.84 0.88 0.85 0.84 0.82 0.76 0.79 0.95 0.89 0.93 0.91 0.85 0.69 0.67 0.70 0.67 0.64 0.67 0.77 1.01 1.17 1.31 1.58 1.75 1.58 1.40 1.25 1.21 1.30 1.53 1.90 2.00 1.75 1.70 1.67 1.60 1.78 1.84 1.50 1.35 1.28 1.17 1.28
0.81 0.85 0.87 0.84 0.83 0.84 0.84 0.89 0.92 0.98 0.90 0.85 0.79 0.74 0.72 0.67 0.60 0.67 0.69 0.78 0.79 0.91 1.17 1.44 1.62 1.54 1.44 1.40 1.42 1.61 1.88 1.86 1.65 1.63 1.66 1.62 1.62 1.69 1.63 1.44 1.27 1.17 1.21
0.88 0.88 0.92 0.93 0.97 1.00 0.98 0.98 1.01 1.04 1.00 0.99 0.97 0.93 0.76 0.76 0.68 0.68 0.68 0.68 0.73 0.70 0.82 0.96 1.18 1.36 1.52 1.62 1.80 2.00 1.91 1.75 1.55 1.50 1.59 1.57 1.55 1.63 1.64 1.54 1.30 1.20 1.16
0.94 1.05 1.08 1.13 1.10 1.12 1.14 1.10 1.12 1.06 1.05 1.07 1.00 0.98 0.86 0.84 0.80 0.69 0.75 0.77 0.76 0.72 0.74 0.67 0.73 0.84 1.09 1.44 1.93 2.22 1.94 1.79 1.62 1.47 1.45 1.47 1.57 1.68 1.62 1.43 1.25 1.15 1.14
1.24 1.39 1.47 1.41 1.39 1.39 1.38 1.34 1.42 1.31 1.13 1.13 1.06 1.01 0.89 0.80 0.87 0.84 0.83 0.82 0.86 0.84 0.78 0.67 0.62 0.53 0.64 1.00 1.56 1.98 1.92 1.83 1.69 1.58 1.47 1.41 1.49 1.59 1.55 1.44 1.29 1.25 1.22
1.62 1.73 1.66 1.74 1.77 1.65 1.64 1.68 1.75 1.70 1.44 1.31 1.38 1.27 1.00 0.77 0.84 0.84 0.81 0.86 0.92 1.03 1.05 0.91 0.77 0.68 0.64 0.72 1.04 1.53 1.82 1.86 1.90 1.75 1.60 1.56 1.52 1.52 1.53 1.49 1.47 1.39 1.31
1.85 1.88 1.96 2.03 2.06 2.05 2.02 1.90 1.98 2.08 1.82 1.60 1.71 1.99 1.58 1.18 0.85 0.69 0.79 0.83 0.94 1.17 1.24 1.06 0.87 0.79 0.77 0.82 0.71 0.95 1.31 1.71 1.91 1.92 1.83 1.76 1.70 1.57 1.53 1.45 1.42 1.42 1.43
2.08 2.10 2.16 2.22 2.22 2.07 2.07 2.15 2.25 2.58 2.39 2.04 1.86 2.11 1.90 1.58 1.29 0.88 0.82 0.89 0.97 1.14 1.26 1.28 1.16 1.08 0.98 0.96 0.89 0.70 0.82 1.22 1.60 1.91 1.99 1.91 1.77 1.66 1.64 1.53 1.37 1.30 1.28
2.01 2.12 2.14 2.13 2.10 2.04 2.10 2.16 2.20 2.57 2.76 2.46 2.14 1.81 1.61 1.58 1.63 1.32 0.98 0.94 1.03 1.05 1.17 1.24 1.19 1.25 1.22 1.19 1.13 0.84 0.74 0.95 1.26 1.71 2.04 2.23 2.02 1.78 1.62 1.59 1.56 1.40 1.24
1.87 1.91 1.93 2.01 2.04 2.09 2.14 2.30 2.40 2.63 2.65 2.65 2.47 2.29 2.08 1.79 1.45 1.49 1.42 1.17 1.13 1.06 1.15 1.27 1.31 1.39 1.39 1.39 1.47 1.16 0.88 0.77 0.94 1.36 1.86 2.27 2.29 2.10 1.85 1.70 1.67 1.62 1.38
1.86 1.79 1.76 1.82 1.94 2.11 2.17 2.25 2.38 2.61 2.71 2.79 2.72 2.46 2.37 2.21 1.91 1.78 1.54 1.40 1.39 1.20 1.18 1.21 1.25 1.38 1.50 1.56 1.48 1.55 1.24 0.84 0.74 1.00 1.33 1.78 2.20 2.36 2.28 2.13 2.00 1.96 1.80
1.56 1.58 1.66 1.76 1.89 2.01 2.09 2.21 2.35 2.39 2.50 2.73 2.74 2.58 2.38 2.16 2.13 2.02 1.91 1.60 1.43 1.26 1.25 1.24 1.19 1.24 1.25 1.51 1.61 1.66 1.34 1.00 0.74 0.75 0.89 1.05 1.40 1.87 2.26 2.33 2.31 2.38 2.36
1.46 1.39 1.43 1.53 1.77 1.97 2.05 2.14 2.16 2.13 2.18 2.36 2.37 2.43 2.40 2.12 2.06 1.96 1.95 2.02 1.76 1.56 1.41 1.23 1.11 1.15 1.18 1.36 1.64 1.71 1.28 1.07 0.86 0.74 0.76 0.86 0.93 1.11 1.51 2.05 2.34 2.44 2.59
1.25 1.20 1.22 1.26 1.39 1.63 1.88 2.04 1.98 1.90 1.87 2.02 2.09 2.18 2.29 2.30 2.22 2.12 2.09 2.14 2.07 1.82 1.63 1.43 1.21 1.09 1.15 1.25 1.64 1.58 1.35 1.16 1.04 0.87 0.80 0.85 0.84 0.88 1.01 1.31 1.61 1.74 1.90
1.05 1.05 1.06 1.10 1.23 1.34 1.55 1.78 1.88 1.83 1.80 1.85 1.96 2.09 2.22 2.32 2.37 2.18 2.14 2.11 1.96 1.86 1.71 1.42 1.20 1.12 1.18 1.16 1.50 1.53 1.48 1.45 1.20 1.03 0.95 0.91 0.92 0.86 0.89 1.01 1.10 1.12 1.09
0.81 0.85 1.02 1.08 1.15 1.23 1.40 1.66 1.83 1.84 1.77 1.77 1.77 1.85 2.02 2.11 2.33 2.30 2.22 2.11 1.97 1.80 1.67 1.51 1.31 1.15 1.19 1.25 1.35 1.46 1.48 1.37 1.17 1.12 1.00 0.95 0.92 0.92 0.89 0.96 1.08 1.01 0.90
0.58 0.70 0.84 0.89 0.92 0.97 1.15 1.45 1.64 1.68 1.65 1.56 1.55 1.67 1.90 2.07 2.28 2.38 2.34 2.20 2.10 1.96 1.85 1.77 1.60 1.39 1.27 1.30 1.40 1.52 1.52 1.45 1.36 1.33 1.18 1.06 0.99 0.93 0.93 0.92 0.98 1.06 1.00
0.62 0.73 0.83 0.88 0.90 0.95 0.98 1.08 1.24 1.37 1.35 1.30 1.33 1.40 1.46 1.67 1.95 2.14 2.16 2.17 2.21 2.18 2.13 1.97 1.77 1.63 1.50 1.39 1.45 1.50 1.51 1.57 1.44 1.43 1.40 1.31 1.22 1.13 1.05 1.00 0.98 1.00 1.04
0.58 0.66 0.72 0.79 0.87 0.93 0.93 0.94 0.96 1.03 1.05 1.10 1.16 1.21 1.25 1.30 1.53 1.71 1.81 1.99 2.22 2.24 2.25 2.17 1.95 1.78 1.64 1.52 1.57 1.67 1.75 1.74 1.58 1.37 1.36 1.30 1.34 1.29 1.18 1.02 0.96 0.95 0.99
0.49 0.56 0.63 0.67 0.73 0.81 0.90 0.93 0.80 0.76 0.83 0.94 0.97 0.95 0.97 1.04 1.18 1.28 1.36 1.71 2.05 2.23 2.22 2.18 2.04 1.94 1.68 1.55 1.42 1.43 1.65 1.90 1.87 1.76 1.64 1.39 1.34 1.26 1.19 1.13 1.02 0.96 0.96
0.46 0.52 0.51 0.55 0.67 0.70 0.85 0.83 0.65 0.63 0.67 0.77 0.86 0.86 0.76 0.74 0.79 0.87 0.95 1.13 1.41 1.66 1.94 2.11 2.04 1.85 1.63 1.53 1.48 1.50 1.55 1.68 1.83 1.73 1.76 1.74 1.65 1.58 1.48 1.34 1.31 1.22 1.12
0.44 0.46 0.46 0.47 0.53 0.66 0.71 0.57 0.54 0.56 0.63 0.68 0.74 0.80 0.73 0.63 0.70 0.75 0.84 0.92 0.94 1.02 1.31 1.65 1.77 1.73 1.79 1.67 1.63 1.56 1.53 1.60 1.66 1.62 1.77 1.83 1.79 1.74 1.66 1.63 1.70 1.55 1.38
0.52 0.51 0.52 0.51 0.51 0.57 0.56 0.46 0.49 0.51 0.56 0.61 0.69 0.78 0.83 0.76 0.75 0.85 0.85 0.88 0.84 0.80 1.01 1.02 1.19 1.49 1.67 1.76 1.72 1.80 1.97 1.93 1.79 1.65 1.61 1.67 1.58 1.56 1.58 1.58 1.68 1.60 1.49
0.50 0.52 0.56 0.56 0.52 0.49 0.50 0.42 0.44 0.51 0.56 0.60 0.61 0.66 0.74 0.72 0.86 0.94 0.94 1.07 1.04 0.92 1.04 1.10 1.14 1.18 1.31 1.47 1.60 1.68 1.76 1.83 1.80 1.69 1.50 1.38 1.33 1.33 1.38 1.40 1.41 1.48 1.46
0.29 0.38 0.41 0.44 0.48 0.47 0.58 0.46 0.46 0.50 0.59 0.68 0.70 0.67 0.81 0.80 0.87 0.86 0.84 1.07 1.09 0.97 0.88 0.94 0.95 0.93 0.89 0.99 1.21 1.38 1.59 1.69 1.67 1.58 1.34 1.21 1.19 1.22 1.21 1.08 1.00 1.04 1.05

GEFSMA_prec_meanprecacc_204.txt.gz
Total_Precipitation_Accumulation
0.80 0.82 0.76 0.81 0.73 0.72 0.81 0.88 0.87 0.88 0.80 0.68 0.65 0.64 0.71 0.66 0.63 0.67 0.85 1.03 1.37 1.64 1.71 1.53 1.34 1.22 1.19 1.17 1.37 1.60 1.92 2.09 1.95 1.86 1.67 1.56 1.77 1.86 1.46 1.35 1.34 1.29 1.33
0.84 0.88 0.85 0.85 0.82 0.76 0.80 0.96 0.89 0.94 0.93 0.87 0.72 0.68 0.72 0.69 0.65 0.68 0.78 1.02 1.20 1.35 1.63 1.79 1.62 1.44 1.28 1.24 1.34 1.57 1.93 2.03 1.77 1.72 1.70 1.63 1.81 1.87 1.54 1.39 1.31 1.20 1.31
0.81 0.85 0.87 0.84 0.84 0.84 0.84 0.89 0.92 0.99 0.91 0.86 0.81 0.76 0.73 0.69 0.61 0.68 0.70 0.79 0.80 0.93 1.20 1.48 1.66 1.58 1.48 1.44 1.46 1.67 1.93 1.90 1.68 1.66 1.72 1.69 1.66 1.73 1.68 1.50 1.34 1.22 1.26
0.88 0.88 0.93 0.94 0.98 1.01 0.98 0.99 1.02 1.05 1.02 1.01 0.99 0.95 0.78 0.78 0.69 0.69 0.69 0.70 0.76 0.73 0.84 0.97 1.21 1.41 1.58 1.67 1.83 2.04 1.96 1.80 1.60 1.56 1.71 1.65 1.57 1.65 1.68 1.59 1.35 1.25 1.22
0.94 1.05 1.09 1.14 1.12 1.14 1.16 1.11 1.13 1.07 1.07 1.09 1.02 1.00 0.89 0.86 0.83 0.70 0.77 0.79 0.79 0.75 0.78 0.69 0.75 0.86 1.12 1.46 1.96 2.25 1.97 1.82 1.68 1.55 1.59 1.57 1.61 1.73 1.69 1.49 1.30 1.21 1.20
1.24 1.39 1.47 1.41 1.40 1.41 1.40 1.35 1.43 1.32 1.14 1.14 1.07 1.02 0.91 0.81 0.88 0.87 0.85 0.84 0.88 0.86 0.79 0.69 0.65 0.55 0.65 1.00 1.57 2.00 1.95 1.87 1.73 1.65 1.59 1.58 1.67 1.75 1.66 1.51 1.35 1.32 1.28
1.62 1.74 1.67 1.75 1.79 1.66 1.66 1.70 1.76 1.70 1.45 1.32 1.39 1.29 1.02 0.79 0.86 0.85 0.83 0.87 0.93 1.04 1.07 0.93 0.79 0.70 0.66 0.72 1.05 1.54 1.85 1.91 1.94 1.80 1.69 1.68 1.66 1.65 1.63 1.57 1.54 1.47 1.41
1.85 1.89 1.97 2.04 2.08 2.07 2.03 1.92 2.00 2.09 1.82 1.61 1.72 2.02 1.61 1.20 0.86 0.70 0.79 0.84 0.94 1.18 1.24 1.07 0.87 0.80 0.79 0.84 0.72 0.97 1.33 1.76 1.97 1.97 1.88 1.82 1.81 1.79 1.73 1.56 1.50 1.50 1.51
2.08 2.11 2.16 2.23 2.23 2.09 2.08 2.17 2.26 2.60 2.41 2.05 1.87 2.13 1.94 1.61 1.31 0.89 0.83 0.89 0.97 1.14 1.27 1.28 1.16 1.09 0.99 0.98 0.90 0.70 0.84 1.26 1.66 1.96 2.03 1.95 1.84 1.87 1.92 1.73 1.49 1.42 1.38
2.01 2.12 2.14 2.13 2.10 2.04 2.11 2.17 2.20 2.58 2.77 2.48 2.16 1.83 1.62 1.59 1.65 1.34 0.99 0.95 1.03 1.06 1.17 1.24 1.19 1.25 1.22 1.19 1.14 0.85 0.75 0.97 1.30 1.77 2.08 2.27 2.06 1.84 1.73 1.74 1.69 1.51 1.33
1.88 1.91 1.93 2.02 2.05 2.09 2.15 2.30 2.41 2.63 2.66 2.66 2.49 2.30 2.09 1.80 1.46 1.50 1.43 1.18 1.14 1.06 1.15 1.27 1.31 1.39 1.39 1.40 1.48 1.17 0.89 0.78 0.96 1.40 1.91 2.31 2.33 2.15 1.91 1.77 1.74 1.70 1.46
1.86 1.79 1.76 1.82 1.94 2.11 2.17 2.25 2.39 2.62 2.72 2.80 2.73 2.48 2.39 2.22 1.93 1.80 1.55 1.40 1.40 1.21 1.18 1.21 1.25 1.38 1.51 1.57 1.49 1.56 1.25 0.86 0.75 1.02 1.35 1.80 2.24 2.41 2.34 2.19 2.05 2.01 1.84
1.56 1.59 1.67 1.76 1.89 2.01 2.09 2.21 2.35 2.39 2.50 2.73 2.75 2.58 2.38 2.17 2.13 2.03 1.92 1.61 1.44 1.27 1.25 1.24 1.19 1.24 1.26 1.51 1.62 1.67 1.36 1.02 0.75 0.76 0.90 1.06 1.42 1.90 2.30 2.37 2.34 2.41 2.38
1.46 1.39 1.44 1.54 1.77 1.97 2.05 2.14 2.16 2.13 2.18 2.36 2.37 2.44 2.41 2.12 2.06 1.96 1.96 2.03 1.76 1.56 1.41 1.23 1.11 1.15 1.18 1.37 1.65 1.73 1.30 1.11 0.89 0.75 0.77 0.87 0.94 1.12 1.52 2.07 2.36 2.48 2.62
1.25 1.20 1.23 1.27 1.39 1.63 1.89 2.04 1.98 1.90 1.87 2.02 2.09 2.18 2.30 2.31 2.22 2.12 2.09 2.14 2.08 1.83 1.63 1.43 1.21 1.09 1.15 1.25 1.64 1.59 1.38 1.20 1.07 0.90 0.81 0.86 0.84 0.89 1.02 1.32 1.62 1.76 1.92
1.06 1.06 1.06 1.11 1.24 1.35 1.56 1.79 1.89 1.83 1.80 1.85 1.96 2.09 2.23 2.32 2.37 2.18 2.14 2.11 1.96 1.87 1.71 1.42 1.20 1.12 1.18 1.16 1.50 1.53 1.49 1.47 1.23 1.06 0.97 0.93 0.93 0.87 0.89 1.02 1.10 1.13 1.09
0.82 0.85 1.03 1.08 1.15 1.23 1.40 1.66 1.84 1.85 1.77 1.77 1.77 1.85 2.02 2.11 2.33 2.30 2.22 2.11 1.98 1.81 1.67 1.52 1.31 1.15 1.19 1.25 1.35 1.46 1.48 1.38 1.19 1.14 1.02 0.96 0.93 0.92 0.90 0.96 1.09 1.01 0.91
0.59 0.71 0.84 0.89 0.93 0.97 1.16 1.45 1.65 1.68 1.65 1.56 1.55 1.68 1.90 2.08 2.28 2.39 2.34 2.20 2.11 1.97 1.85 1.78 1.60 1.39 1.27 1.30 1.40 1.52 1.52 1.45 1.36 1.34 1.20 1.08 1.01 0.94 0.94 0.93 0.99 1.06 1.01
0.62 0.74 0.84 0.89 0.91 0.96 0.99 1.09 1.25 1.37 1.36 1.30 1.34 1.40 1.46 1.67 1.96 2.14 2.16 2.18 2.21 2.19 2.14 1.98 1.77 1.64 1.50 1.39 1.46 1.51 1.51 1.57 1.44 1.43 1.40 1.31 1.24 1.16 1.07 1.01 0.99 1.01 1.05
0.58 0.67 0.73 0.80 0.88 0.94 0.94 0.95 0.97 1.03 1.05 1.10 1.16 1.21 1.26 1.30 1.53 1.72 1.81 2.00 2.23 2.24 2.25 2.18 1.96 1.78 1.65 1.52 1.58 1.67 1.75 1.74 1.58 1.37 1.36 1.30 1.34 1.30 1.18 1.03 0.96 0.95 1.00
0.49 0.57 0.64 0.67 0.73 0.82 0.91 0.93 0.80 0.76 0.83 0.94 0.97 0.95 0.97 1.04 1.18 1.28 1.36 1.71 2.05 2.24 2.23 2.18 2.05 1.94 1.69 1.55 1.42 1.43 1.65 1.90 1.87 1.76 1.64 1.39 1.34 1.26 1.19 1.13 1.02 0.96 0.97
0.47 0.52 0.52 0.55 0.67 0.70 0.85 0.83 0.66 0.64 0.67 0.77 0.86 0.86 0.76 0.75 0.79 0.87 0.95 1.13 1.41 1.66 1.94 2.12 2.04 1.85 1.64 1.53 1.48 1.50 1.55 1.69 1.83 1.73 1.76 1.74 1.65 1.59 1.49 1.35 1.32 1.23 1.13
0.44 0.46 0.46 0.47 0.53 0.66 0.71 0.57 0.54 0.56 0.63 0.68 0.74 0.81 0.74 0.64 0.71 0.75 0.85 0.92 0.94 1.02 1.31 1.65 1.78 1.73 1.80 1.67 1.63 1.56 1.53 1.61 1.66 1.63 1.77 1.83 1.79 1.74 1.66 1.63 1.71 1.56 1.38
0.52 0.51 0.52 0.51 0.51 0.57 0.57 0.46 0.49 0.51 0.56 0.61 0.70 0.78 0.83 0.76 0.75 0.86 0.86 0.89 0.85 0.81 1.01 1.02 1.19 1.49 1.67 1.76 1.73 1.81 1.97 1.93 1.79 1.66 1.61 1.67 1.59 1.57 1.58 1.58 1.68 1.61 1.50
0.50 0.53 0.56 0.56 0.52 0.49 0.51 0.43 0.45 0.51 0.56 0.60 0.62 0.67 0.75 0.73 0.86 0.95 0.95 1.08 1.05 0.93 1.05 1.11 1.15 1.19 1.32 1.48 1.60 1.68 1.77 1.83 1.80 1.70 1.51 1.38 1.33 1.33 1.39 1.40 1.41 1.48 1.46
0.29 0.39 0.41 0.44 0.48 0.47 0.58 0.46 0.47 0.50 0.59 0.69 0.70 0.68 0.82 0.81 0.88 0.87 0.86 1.09 1.11 0.98 0.90 0.96 0.97 0.95 0.90 1.01 1.22 1.39 1.60 1.70 1.68 1.59 1.35 1.22 1.19 1.22 1.22 1.08 1.00 1.05 1.05

GEFSMA_prec_meanprecacc_210.txt.gz
Total_Precipitation_Accumulation
0.82 0.85 0.79 0.83 0.75 0.73 0.82 0.88 0.89 0.91 0.82 0.70 0.66 0.65 0.72 0.67 0.65 0.71 0.88 1.07 1.42 1.69 1.76 1.57 1.38 1.28 1.23 1.23 1.42 1.64 1.95 2.12 1.97 1.88 1.70 1.59 1.79 1.88 1.49 1.38 1.39 1.35 1.43
0.87 0.92 0.87 0.86 0.84 0.77 0.80 0.97 0.90 0.95 0.94 0.88 0.73 0.69 0.72 0.69 0.66 0.69 0.80 1.04 1.22 1.38 1.67 1.84 1.67 1.48 1.32 1.29 1.39 1.62 1.98 2.05 1.79 1.74 1.72 1.66 1.83 1.89 1.57 1.43 1.35 1.24 1.36
0.82 0.86 0.87 0.85 0.84 0.85 0.84 0.90 0.92 0.99 0.92 0.86 0.82 0.77 0.74 0.70 0.62 0.68 0.70 0.80 0.81 0.96 1.24 1.54 1.70 1.63 1.54 1.49 1.50 1.71 1.97 1.94 1.71 1.69 1.74 1.70 1.68 1.74 1.70 1.53 1.38 1.26 1.30
0.89 0.89 0.93 0.94 0.98 1.02 0.99 1.00 1.03 1.06 1.02 1.01 0.99 0.96 0.79 0.79 0.70 0.70 0.69 0.71 0.77 0.74 0.86 1.01 1.25 1.45 1.63 1.72 1.86 2.06 1.98 1.82 1.63 1.60 1.73 1.66 1.59 1.67 1.70 1.62 1.39 1.29 1.26
0.95 1.06 1.09 1.14 1.12 1.14 1.16 1.12 1.13 1.07 1.08 1.09 1.02 1.00 0.90 0.88 0.83 0.71 0.78 0.80 0.80 0.76 0.79 0.70 0.76 0.87 1.14 1.49 1.98 2.27 2.00 1.85 1.72 1.61 1.62 1.59 1.63 1.75 1.71 1.52 1.34 1.23 1.23
1.25 1.40 1.48 1.42 1.41 1.42 1.42 1.36 1.44 1.33 1.15 1.15 1.08 1.02 0.92 0.83 0.89 0.87 0.85 0.85 0.89 0.86 0.80 0.70 0.66 0.55 0.65 1.01 1.59 2.03 1.98 1.91 1.78 1.73 1.65 1.62 1.70 1.77 1.68 1.54 1.40 1.36 1.32
1.63 1.75 1.69 1.77 1.79 1.67 1.67 1.72 1.77 1.71 1.45 1.32 1.40 1.30 1.03 0.80 0.87 0.86 0.83 0.88 0.94 1.04 1.07 0.94 0.79 0.71 0.66 0.73 1.06 1.56 1.90 1.96 1.99 1.86 1.75 1.73 1.70 1.68 1.66 1.60 1.59 1.53 1.47
1.85 1.89 1.98 2.05 2.09 2.08 2.04 1.93 2.00 2.10 1.83 1.62 1.74 2.03 1.63 1.22 0.88 0.71 0.80 0.84 0.94 1.18 1.24 1.07 0.87 0.80 0.79 0.84 0.73 0.98 1.38 1.82 2.01 2.02 1.92 1.86 1.84 1.85 1.79 1.60 1.54 1.57 1.58
2.08 2.11 2.17 2.23 2.24 2.10 2.09 2.18 2.27 2.60 2.41 2.06 1.88 2.14 1.95 1.62 1.32 0.91 0.84 0.89 0.97 1.14 1.27 1.28 1.16 1.09 0.99 0.98 0.91 0.72 0.87 1.31 1.71 2.01 2.07 2.00 1.90 2.06 2.14 1.83 1.56 1.48 1.44
2.01 2.13 2.14 2.14 2.11 2.05 2.12 2.18 2.21 2.59 2.77 2.48 2.16 1.83 1.62 1.59 1.66 1.36 1.00 0.95 1.03 1.06 1.17 1.24 1.19 1.25 1.22 1.20 1.15 0.86 0.77 1.02 1.35 1.81 2.14 2.32 2.11 1.92 1.89 1.88 1.75 1.56 1.37
1.88 1.91 1.93 2.02 2.05 2.10 2.15 2.31 2.41 2.63 2.66 2.67 2.49 2.31 2.10 1.81 1.47 1.50 1.43 1.18 1.14 1.06 1.15 1.27 1.31 1.39 1.40 1.40 1.49 1.18 0.90 0.82 1.01 1.45 1.96 2.37 2.39 2.19 1.97 1.84 1.78 1.74 1.50
1.86 1.79 1.76 1.83 1.95 2.11 2.17 2.25 2.39 2.62 2.72 2.80 2.74 2.48 2.39 2.22 1.93 1.80 1.55 1.40 1.40 1.21 1.18 1.21 1.25 1.38 1.51 1.57 1.50 1.57 1.26 0.88 0.80 1.08 1.42 1.88 2.30 2.45 2.37 2.23 2.09 2.04 1.86
1.57 1.59 1.67 1.76 1.89 2.01 2.10 2.21 2.35 2.39 2.50 2.74 2.75 2.59 2.38 2.17 2.14 2.04 1.92 1.61 1.44 1.27 1.25 1.24 1.19 1.24 1.26 1.51 1.62 1.68 1.37 1.04 0.80 0.81 0.96 1.14 1.48 1.95 2.34 2.42 2.38 2.43 2.41
1.46 1.40 1.44 1.54 1.77 1.97 2.05 2.15 2.16 2.13 2.18 2.37 2.37 2.44 2.41 2.12 2.06 1.97 1.96 2.04 1.76 1.57 1.41 1.23 1.12 1.15 1.18 1.37 1.65 1.73 1.30 1.12 0.91 0.79 0.82 0.94 1.00 1.17 1.56 2.10 2.39 2.50 2.65
1.27 1.21 1.23 1.27 1.40 1.63 1.89 2.05 1.99 1.91 1.87 2.03 2.10 2.19 2.30 2.31 2.23 2.13 2.10 2.15 2.09 1.84 1.64 1.43 1.21 1.09 1.15 1.25 1.64 1.59 1.38 1.20 1.08 0.92 0.85 0.90 0.88 0.92 1.04 1.33 1.63 1.77 1.94
1.07 1.07 1.07 1.12 1.25 1.36 1.57 1.80 1.90 1.84 1.81 1.86 1.97 2.10 2.23 2.33 2.38 2.19 2.15 2.12 1.98 1.88 1.72 1.42 1.21 1.12 1.19 1.17 1.50 1.53 1.49 1.47 1.23 1.07 0.99 0.96 0.96 0.89 0.90 1.03 1.11 1.14 1.10
0.84 0.87 1.04 1.09 1.16 1.24 1.41 1.67 1.85 1.86 1.78 1.79 1.78 1.86 2.03 2.12 2.34 2.31 2.23 2.12 1.99 1.82 1.68 1.52 1.31 1.15 1.20 1.25 1.35 1.46 1.48 1.38 1.19 1.14 1.02 0.97 0.95 0.94 0.91 0.97 1.09 1.02 0.91
0.60 0.71 0.84 0.89 0.93 0.98 1.17 1.46 1.66 1.69 1.66 1.57 1.56 1.68 1.91 2.08 2.29 2.39 2.34 2.20 2.11 1.98 1.85 1.78 1.60 1.39 1.28 1.31 1.40 1.52 1.52 1.45 1.36 1.34 1.20 1.08 1.01 0.95 0.94 0.93 0.99 1.07 1.01
0.63 0.75 0.84 0.89 0.91 0.97 1.00 1.10 1.26 1.38 1.36 1.31 1.34 1.41 1.47 1.67 1.96 2.14 2.16 2.18 2.21 2.19 2.14 1.98 1.77 1.64 1.50 1.39 1.46 1.51 1.51 1.57 1.44 1.43 1.40 1.31 1.24 1.16 1.07 1.01 0.99 1.01 1.05
0.59 0.68 0.75 0.81 0.89 0.94 0.95 0.95 0.97 1.04 1.05 1.10 1.16 1.21 1.26 1.30 1.53 1.72 1.81 2.00 2.23 2.24 2.25 2.18 1.96 1.78 1.65 1.52 1.58 1.67 1.75 1.74 1.58 1.37 1.36 1.30 1.34 1.30 1.19 1.03 0.96 0.96 1.00
0.50 0.57 0.64 0.68 0.74 0.83 0.92 0.94 0.81 0.77 0.83 0.94 0.97 0.95 0.97 1.04 1.18 1.28 1.36 1.72 2.06 2.24 2.23 2.18 2.05 1.94 1.69 1.56 1.42 1.43 1.65 1.90 1.87 1.76 1.64 1.39 1.34 1.26 1.19 1.13 1.02 0.96 0.97
0.47 0.52 0.52 0.56 0.67 0.71 0.85 0.84 0.67 0.64 0.67 0.77 0.86 0.86 0.76 0.75 0.80 0.87 0.95 1.13 1.41 1.66 1.94 2.12 2.04 1.85 1.64 1.53 1.48 1.50 1.55 1.69 1.83 1.73 1.76 1.74 1.65 1.59 1.49 1.35 1.32 1.23 1.13
0.44 0.46 0.46 0.47 0.53 0.67 0.72 0.57 0.55 0.57 0.63 0.69 0.75 0.81 0.74 0.64 0.71 0.75 0.85 0.92 0.94 1.02 1.31 1.66 1.78 1.73 1.80 1.68 1.63 1.56 1.54 1.61 1.66 1.63 1.77 1.83 1.79 1.74 1.66 1.63 1.71 1.56 1.38
0.52 0.51 0.52 0.52 0.51 0.58 0.57 0.47 0.50 0.52 0.57 0.62 0.70 0.79 0.85 0.77 0.77 0.87 0.87 0.90 0.86 0.83 1.02 1.04 1.20 1.49 1.67 1.76 1.73 1.81 1.97 1.94 1.79 1.66 1.61 1.67 1.59 1.57 1.58 1.58 1.68 1.61 1.50
0.50 0.53 0.56 0.57 0.52 0.50 0.51 0.44 0.45 0.52 0.56 0.61 0.62 0.68 0.76 0.74 0.88 0.96 0.97 1.10 1.08 0.96 1.08 1.14 1.17 1.20 1.32 1.48 1.61 1.69 1.77 1.84 1.81 1.70 1.51 1.38 1.34 1.33 1.39 1.40 1.41 1.48 1.47
0.29 0.39 0.42 0.45 0.48 0.48 0.59 0.48 0.48 0.51 0.60 0.70 0.71 0.69 0.82 0.82 0.89 0.88 0.87 1.10 1.12 1.00 0.92 0.99 0.99 0.97 0.91 1.01 1.23 1.40 1.61 1.71 1.69 1.60 1.36 1.22 1.19 1.22 1.22 1.08 1.00 1.05 1.06

GEFSMA_prec_meanprecacc_216.txt.gz
Total_Precipitation_Accumulation
0.83 0.85 0.80 0.83 0.75 0.73 0.83 0.90 0.91 0.94 0.84 0.72 0.67 0.66 0.73 0.67 0.65 0.72 0.90 1.11 1.48 1.78 1.83 1.65 1.45 1.35 1.31 1.30 1.47 1.69 1.99 2.15 2.00 1.92 1.75 1.64 1.84 1.95 1.59 1.45 1.44 1.40 1.49
0.87 0.92 0.87 0.87 0.84 0.78 0.82 0.99 0.94 0.98 0.96 0.88 0.73 0.69 0.72 0.69 0.66 0.69 0.80 1.05 1.25 1.44 1.74 1.91 1.73 1.56 1.41 1.36 1.44 1.66 2.02 2.09 1.82 1.77 1.75 1.69 1.87 1.94 1.64 1.49 1.40 1.30 1.43
0.83 0.86 0.87 0.85 0.85 0.86 0.86 0.91 0.96 1.02 0.92 0.87 0.82 0.77 0.74 0.70 0.62 0.69 0.71 0.81 0.83 0.99 1.30 1.61 1.78 1.73 1.64 1.58 1.57 1.76 2.02 1.98 1.75 1.74 1.81 1.76 1.73 1.79 1.73 1.57 1.44 1.32 1.36
0.89 0.89 0.93 0.94 0.99 1.03 1.00 1.01 1.06 1.08 1.03 1.01 1.00 0.96 0.79 0.80 0.71 0.70 0.69 0.72 0.78 0.75 0.89 1.06 1.32 1.53 1.70 1.78 1.91 2.12 2.03 1.86 1.70 1.68 1.78 1.69 1.62 1.71 1.73 1.65 1.43 1.32 1.30
0.95 1.06 1.09 1.15 1.13 1.15 1.17 1.13 1.15 1.08 1.09 1.10 1.03 1.01 0.90 0.89 0.84 0.72 0.78 0.80 0.80 0.76 0.80 0.71 0.77 0.89 1.15 1.51 2.02 2.32 2.02 1.89 1.81 1.66 1.64 1.61 1.65 1.78 1.75 1.56 1.38 1.27 1.26
1.25 1.40 1.48 1.42 1.42 1.42 1.42 1.37 1.45 1.34 1.16 1.16 1.09 1.03 0.92 0.83 0.89 0.87 0.85 0.85 0.89 0.86 0.80 0.70 0.66 0.55 0.66 1.02 1.64 2.06 2.01 1.95 1.84 1.77 1.68 1.64 1.71 1.80 1.72 1.58 1.44 1.39 1.35
1.63 1.75 1.69 1.77 1.80 1.67 1.68 1.72 1.79 1.73 1.47 1.33 1.41 1.31 1.04 0.81 0.87 0.86 0.83 0.88 0.94 1.05 1.07 0.94 0.79 0.71 0.67 0.74 1.11 1.60 1.95 1.99 2.01 1.88 1.78 1.75 1.72 1.71 1.70 1.64 1.62 1.56 1.51
1.85 1.89 1.98 2.06 2.10 2.09 2.05 1.94 2.02 2.11 1.85 1.63 1.75 2.04 1.64 1.23 0.88 0.71 0.80 0.85 0.95 1.18 1.25 1.07 0.87 0.80 0.79 0.87 0.78 1.03 1.45 1.86 2.03 2.03 1.94 1.88 1.87 1.87 1.81 1.62 1.57 1.60 1.63
2.08 2.11 2.17 2.24 2.25 2.11 2.10 2.19 2.28 2.61 2.42 2.07 1.89 2.15 1.95 1.62 1.32 0.91 0.84 0.89 0.98 1.15 1.27 1.28 1.16 1.09 0.99 1.01 0.96 0.78 0.96 1.37 1.74 2.02 2.09 2.03 1.92 2.07 2.16 1.86 1.59 1.52 1.50
2.02 2.13 2.14 2.14 2.11 2.06 2.14 2.19 2.22 2.60 2.78 2.49 2.17 1.83 1.62 1.60 1.66 1.36 1.00 0.96 1.04 1.06 1.17 1.25 1.19 1.25 1.23 1.23 1.20 0.94 0.88 1.10 1.40 1.84 2.17 2.35 2.14 1.95 1.93 1.92 1.80 1.60 1.43
1.88 1.92 1.94 2.03 2.06 2.10 2.16 2.33 2.43 2.64 2.66 2.67 2.49 2.31 2.10 1.81 1.47 1.51 1.43 1.18 1.15 1.07 1.15 1.28 1.31 1.39 1.40 1.44 1.54 1.26 0.99 0.89 1.07 1.49 1.99 2.41 2.43 2.23 2.01 1.89 1.83 1.79 1.55
1.87 1.80 1.77 1.83 1.95 2.12 2.18 2.27 2.41 2.63 2.72 2.81 2.74 2.48 2.39 2.23 1.93 1.80 1.55 1.41 1.40 1.21 1.18 1.21 1.25 1.38 1.52 1.60 1.56 1.65 1.34 0.94 0.84 1.11 1.45 1.91 2.34 2.49 2.41 2.28 2.13 2.09 1.92
1.58 1.60 1.68 1.77 1.90 2.02 2.11 2.22 2.36 2.40 2.51 2.74 2.76 2.60 2.39 2.17 2.14 2.04 1.93 1.61 1.44 1.27 1.25 1.24 1.19 1.25 1.27 1.54 1.66 1.72 1.41 1.07 0.82 0.83 1.00 1.22 1.56 1.99 2.37 2.45 2.42 2.48 2.46
1.48 1.41 1.46 1.56 1.79 1.98 2.07 2.16 2.17 2.14 2.19 2.38 2.38 2.45 2.42 2.13 2.07 1.98 1.97 2.04 1.76 1.57 1.41 1.23 1.12 1.16 1.19 1.38 1.67 1.75 1.32 1.13 0.92 0.80 0.83 1.02 1.11 1.22 1.58 2.12 2.41 2.53 2.68
1.29 1.23 1.25 1.29 1.42 1.65 1.91 2.06 2.00 1.92 1.88 2.04 2.10 2.19 2.30 2.32 2.23 2.14 2.11 2.16 2.10 1.84 1.64 1.43 1.21 1.10 1.16 1.27 1.66 1.61 1.39 1.21 1.09 0.94 0.86 0.92 0.91 0.95 1.06 1.35 1.65 1.79 1.96
1.09 1.09 1.09 1.14 1.27 1.38 1.58 1.81 1.91 1.85 1.82 1.87 1.98 2.10 2.24 2.33 2.38 2.19 2.15 2.12 1.98 1.88 1.72 1.42 1.21 1.13 1.19 1.17 1.51 1.54 1.50 1.48 1.24 1.07 1.00 0.97 0.97 0.90 0.92 1.04 1.12 1.14 1.11
0.89 0.92 1.08 1.13 1.19 1.25 1.43 1.69 1.87 1.87 1.79 1.79 1.78 1.87 2.04 2.12 2.34 2.31 2.23 2.12 1.99 1.82 1.68 1.52 1.32 1.15 1.20 1.25 1.35 1.47 1.48 1.38 1.19 1.14 1.02 0.98 0.95 0.94 0.91 0.98 1.10 1.02 0.92
0.64 0.76 0.90 0.94 0.97 1.00 1.18 1.47 1.67 1.71 1.67 1.58 1.57 1.69 1.91 2.08 2.29 2.39 2.34 2.21 2.11 1.98 1.85 1.78 1.60 1.39 1.28 1.31 1.40 1.52 1.52 1.46 1.36 1.35 1.21 1.09 1.01 0.95 0.94 0.94 1.00 1.07 1.01
0.65 0.77 0.86 0.91 0.93 0.98 1.01 1.11 1.27 1.39 1.37 1.31 1.34 1.41 1.47 1.67 1.96 2.14 2.16 2.18 2.21 2.19 2.14 1.98 1.77 1.64 1.50 1.39 1.46 1.51 1.51 1.57 1.44 1.43 1.41 1.32 1.24 1.16 1.07 1.02 0.99 1.01 1.05
0.60 0.68 0.76 0.82 0.89 0.95 0.95 0.96 0.98 1.05 1.06 1.11 1.17 1.22 1.26 1.31 1.54 1.72 1.81 2.00 2.23 2.24 2.26 2.18 1.96 1.78 1.65 1.52 1.58 1.67 1.75 1.74 1.58 1.37 1.36 1.30 1.34 1.30 1.19 1.03 0.96 0.96 1.00
0.51 0.58 0.65 0.69 0.74 0.83 0.92 0.95 0.82 0.77 0.84 0.95 0.98 0.96 0.98 1.05 1.19 1.29 1.36 1.72 2.06 2.24 2.23 2.18 2.05 1.95 1.69 1.56 1.43 1.43 1.65 1.90 1.87 1.77 1.64 1.39 1.34 1.26 1.19 1.13 1.02 0.96 0.97
0.48 0.53 0.52 0.56 0.68 0.72 0.86 0.84 0.67 0.65 0.68 0.78 0.87 0.87 0.77 0.76 0.81 0.87 0.96 1.14 1.41 1.66 1.94 2.12 2.04 1.85 1.64 1.54 1.49 1.50 1.56 1.69 1.84 1.73 1.76 1.75 1.65 1.59 1.49 1.35 1.32 1.23 1.13
0.45 0.47 0.46 0.48 0.53 0.67 0.72 0.58 0.55 0.57 0.64 0.69 0.75 0.82 0.75 0.65 0.72 0.76 0.86 0.93 0.95 1.02 1.31 1.66 1.78 1.73 1.80 1.68 1.64 1.57 1.54 1.61 1.66 1.63 1.78 1.83 1.79 1.75 1.67 1.64 1.71 1.56 1.38
0.53 0.52 0.53 0.52 0.52 0.58 0.57 0.47 0.50 0.52 0.57 0.62 0.70 0.79 0.85 0.78 0.77 0.88 0.88 0.91 0.87 0.83 1.03 1.04 1.20 1.50 1.68 1.77 1.73 1.81 1.98 1.94 1.80 1.66 1.62 1.67 1.59 1.57 1.58 1.58 1.69 1.61 1.50
0.51 0.54 0.58 0.58 0.53 0.50 0.52 0.44 0.46 0.52 0.56 0.61 0.63 0.68 0.76 0.74 0.88 0.97 0.97 1.10 1.08 0.96 1.09 1.14 1.18 1.21 1.33 1.49 1.61 1.69 1.78 1.84 1.82 1.71 1.52 1.39 1.34 1.34 1.39 1.40 1.41 1.48 1.47
0.30 0.40 0.43 0.46 0.49 0.48 0.60 0.48 0.49 0.52 0.61 0.70 0.71 0.69 0.83 0.83 0.89 0.89 0.87 1.11 1.13 1.01 0.93 1.00 1.01 0.97 0.92 1.02 1.24 1.41 1.61 1.71 1.69 1.60 1.36 1.23 1.20 1.23 1.23 1.09 1.01 1.05 1.06

GEFSMA_prec_meanprecacc_222.txt.gz
Total_Precipitation_Accumulation
0.83 0.86 0.80 0.84 0.75 0.74 0.85 0.92 0.93 0.95 0.86 0.73 0.67 0.67 0.73 0.68 0.65 0.74 0.94 1.18 1.57 1.89 1.95 1.77 1.57 1.44 1.39 1.39 1.55 1.74 2.04 2.20 2.05 1.97 1.79 1.67 1.87 2.00 1.65 1.50 1.50 1.49 1.59
0.88 0.93 0.88 0.88 0.85 0.78 0.83 1.01 0.96 1.00 0.97 0.90 0.74 0.70 0.73 0.70 0.66 0.70 0.82 1.08 1.28 1.50 1.81 2.01 1.84 1.66 1.48 1.43 1.50 1.70 2.07 2.13 1.87 1.82 1.80 1.74 1.93 2.00 1.70 1.55 1.45 1.35 1.50
0.83 0.87 0.88 0.86 0.85 0.87 0.88 0.94 0.98 1.04 0.94 0.88 0.83 0.78 0.75 0.71 0.63 0.70 0.72 0.83 0.86 1.04 1.36 1.67 1.86 1.80 1.71 1.66 1.64 1.81 2.08 2.03 1.79 1.78 1.86 1.81 1.79 1.85 1.79 1.63 1.48 1.36 1.39
0.89 0.89 0.94 0.95 1.00 1.04 1.02 1.04 1.09 1.10 1.05 1.02 1.01 0.98 0.82 0.81 0.72 0.72 0.71 0.74 0.81 0.78 0.93 1.10 1.35 1.57 1.75 1.84 1.98 2.17 2.08 1.90 1.73 1.72 1.81 1.73 1.65 1.76 1.81 1.72 1.48 1.36 1.33
0.95 1.06 1.10 1.15 1.14 1.16 1.19 1.15 1.18 1.10 1.11 1.13 1.05 1.03 0.93 0.91 0.85 0.72 0.78 0.81 0.83 0.78 0.82 0.73 0.78 0.90 1.18 1.53 2.05 2.35 2.05 1.92 1.83 1.68 1.65 1.62 1.67 1.81 1.83 1.62 1.43 1.30 1.28
1.25 1.40 1.49 1.43 1.43 1.44 1.44 1.39 1.47 1.35 1.19 1.20 1.11 1.05 0.94 0.84 0.90 0.88 0.86 0.85 0.90 0.87 0.81 0.71 0.66 0.56 0.66 1.03 1.65 2.08 2.03 1.97 1.85 1.78 1.69 1.65 1.73 1.84 1.80 1.64 1.47 1.43 1.38
1.63 1.75 1.69 1.78 1.81 1.69 1.69 1.74 1.80 1.74 1.50 1.36 1.44 1.33 1.05 0.82 0.87 0.86 0.84 0.88 0.94 1.05 1.07 0.94 0.80 0.71 0.67 0.75 1.12 1.61 1.96 2.00 2.03 1.90 1.80 1.78 1.76 1.76 1.75 1.67 1.66 1.60 1.55
1.85 1.89 1.98 2.07 2.11 2.10 2.05 1.95 2.03 2.13 1.87 1.66 1.78 2.06 1.65 1.24 0.89 0.72 0.80 0.85 0.95 1.18 1.25 1.07 0.88 0.81 0.79 0.87 0.78 1.03 1.46 1.87 2.05 2.05 1.96 1.90 1.89 1.89 1.83 1.64 1.59 1.62 1.66
2.08 2.12 2.17 2.25 2.26 2.12 2.12 2.21 2.31 2.65 2.46 2.11 1.92 2.16 1.96 1.63 1.33 0.92 0.84 0.89 0.98 1.15 1.27 1.29 1.17 1.09 1.00 1.02 0.96 0.79 0.97 1.38 1.75 2.04 2.11 2.05 1.94 2.09 2.17 1.87 1.60 1.53 1.51
2.02 2.14 2.15 2.15 2.13 2.08 2.16 2.22 2.26 2.64 2.83 2.53 2.20 1.84 1.63 1.60 1.67 1.37 1.01 0.96 1.05 1.06 1.17 1.25 1.20 1.26 1.24 1.24 1.21 0.95 0.88 1.10 1.41 1.86 2.18 2.38 2.15 1.96 1.94 1.93 1.82 1.62 1.45
1.89 1.92 1.94 2.03 2.07 2.11 2.17 2.34 2.46 2.69 2.72 2.71 2.52 2.32 2.10 1.81 1.47 1.51 1.44 1.19 1.15 1.07 1.15 1.28 1.32 1.40 1.42 1.45 1.56 1.28 1.00 0.90 1.07 1.49 2.00 2.43 2.44 2.24 2.03 1.91 1.86 1.82 1.58
1.87 1.81 1.77 1.84 1.96 2.13 2.19 2.29 2.43 2.66 2.78 2.86 2.77 2.50 2.40 2.23 1.94 1.81 1.56 1.41 1.41 1.21 1.18 1.21 1.25 1.39 1.54 1.62 1.57 1.68 1.35 0.95 0.85 1.12 1.46 1.93 2.36 2.51 2.42 2.30 2.18 2.14 1.96
1.58 1.61 1.69 1.77 1.91 2.03 2.11 2.23 2.37 2.43 2.54 2.77 2.78 2.61 2.40 2.18 2.15 2.05 1.94 1.62 1.44 1.27 1.25 1.24 1.20 1.25 1.29 1.56 1.69 1.76 1.44 1.09 0.83 0.84 1.01 1.24 1.58 2.02 2.40 2.49 2.47 2.54 2.52
1.48 1.42 1.47 1.57 1.79 1.99 2.07 2.17 2.18 2.16 2.21 2.39 2.40 2.46 2.43 2.14 2.07 1.98 1.98 2.04 1.77 1.57 1.41 1.23 1.12 1.16 1.21 1.41 1.70 1.78 1.34 1.15 0.94 0.81 0.85 1.03 1.12 1.24 1.60 2.15 2.46 2.59 2.74
1.29 1.23 1.26 1.29 1.42 1.65 1.91 2.07 2.01 1.93 1.89 2.05 2.12 2.20 2.32 2.33 2.23 2.14 2.11 2.16 2.10 1.84 1.64 1.43 1.22 1.10 1.17 1.29 1.68 1.61 1.40 1.22 1.10 0.94 0.86 0.92 0.92 0.95 1.07 1.36 1.67 1.82 1.99
1.10 1.09 1.09 1.14 1.27 1.38 1.60 1.83 1.93 1.86 1.83 1.89 2.00 2.12 2.24 2.34 2.39 2.19 2.15 2.13 1.98 1.88 1.72 1.43 1.21 1.13 1.20 1.19 1.53 1.55 1.50 1.48 1.24 1.08 1.00 0.98 0.98 0.90 0.92 1.05 1.13 1.16 1.13
0.89 0.92 1.09 1.14 1.20 1.28 1.47 1.73 1.90 1.91 1.83 1.83 1.80 1.88 2.05 2.14 2.35 2.31 2.23 2.12 1.99 1.83 1.68 1.52 1.32 1.16 1.20 1.26 1.36 1.47 1.48 1.38 1.19 1.15 1.02 0.98 0.96 0.95 0.93 0.99 1.10 1.03 0.92
0.64 0.76 0.90 0.95 0.99 1.04 1.21 1.50 1.70 1.74 1.71 1.62 1.60 1.71 1.93 2.10 2.30 2.39 2.35 2.21 2.12 1.98 1.86 1.79 1.60 1.39 1.28 1.31 1.41 1.52 1.53 1.46 1.37 1.35 1.21 1.09 1.02 0.96 0.96 0.95 1.01 1.08 1.02
0.65 0.77 0.86 0.91 0.93 0.99 1.03 1.13 1.29 1.42 1.40 1.34 1.38 1.44 1.49 1.69 1.97 2.15 2.17 2.18 2.22 2.19 2.15 1.99 1.78 1.64 1.50 1.40 1.46 1.51 1.52 1.57 1.44 1.43 1.41 1.32 1.24 1.16 1.07 1.02 1.00 1.01 1.06
0.60 0.69 0.76 0.83 0.90 0.95 0.96 0.97 0.99 1.06 1.07 1.12 1.19 1.24 1.28 1.33 1.56 1.73 1.82 2.00 2.23 2.25 2.26 2.19 1.97 1.79 1.65 1.52 1.58 1.68 1.75 1.74 1.58 1.37 1.36 1.30 1.34 1.30 1.19 1.03 0.97 0.96 1.01
0.52 0.59 0.66 0.69 0.74 0.84 0.93 0.96 0.83 0.78 0.86 0.96 0.99 0.97 0.99 1.06 1.20 1.30 1.38 1.73 2.06 2.24 2.23 2.19 2.05 1.95 1.69 1.56 1.43 1.43 1.65 1.90 1.87 1.77 1.64 1.39 1.34 1.27 1.19 1.14 1.03 0.97 0.98
0.50 0.55 0.54 0.57 0.68 0.72 0.87 0.85 0.68 0.66 0.70 0.79 0.89 0.88 0.77 0.76 0.82 0.89 0.97 1.14 1.42 1.67 1.95 2.12 2.05 1.86 1.64 1.54 1.49 1.50 1.56 1.69 1.84 1.73 1.76 1.75 1.65 1.59 1.49 1.35 1.33 1.23 1.13
0.46 0.49 0.48 0.49 0.54 0.68 0.72 0.58 0.56 0.58 0.65 0.70 0.76 0.83 0.75 0.65 0.72 0.77 0.87 0.94 0.95 1.03 1.32 1.66 1.78 1.73 1.80 1.68 1.64 1.57 1.54 1.61 1.66 1.63 1.78 1.83 1.79 1.75 1.67 1.64 1.71 1.56 1.39
0.54 0.53 0.54 0.53 0.52 0.58 0.58 0.47 0.51 0.53 0.58 0.62 0.71 0.80 0.85 0.78 0.78 0.88 0.89 0.92 0.88 0.84 1.04 1.04 1.21 1.50 1.68 1.77 1.74 1.82 1.98 1.94 1.80 1.66 1.62 1.67 1.59 1.57 1.59 1.59 1.69 1.61 1.50
0.52 0.55 0.59 0.59 0.54 0.51 0.52 0.45 0.47 0.53 0.57 0.62 0.63 0.68 0.76 0.75 0.88 0.97 0.98 1.11 1.09 0.97 1.09 1.15 1.18 1.21 1.34 1.50 1.62 1.70 1.78 1.85 1.82 1.72 1.52 1.39 1.34 1.34 1.39 1.41 1.41 1.49 1.47
0.31 0.41 0.44 0.47 0.51 0.50 0.61 0.49 0.49 0.53 0.61 0.71 0.72 0.70 0.83 0.83 0.90 0.90 0.88 1.11 1.14 1.02 0.94 1.00 1.01 0.98 0.93 1.03 1.25 1.42 1.62 1.72 1.70 1.61 1.37 1.23 1.20 1.24 1.23 1.09 1.01 1.05 1.06

GEFSMA_prec_meanprecacc_228.txt.gz
Total_Precipitation_Accumulation
0.83 0.87 0.82 0.85 0.77 0.76 0.87 0.94 0.96 0.97 0.87 0.74 0.69 0.70 0.75 0.69 0.66 0.75 0.96 1.23 1.64 1.97 2.06 1.87 1.67 1.56 1.48 1.47 1.62 1.82 2.12 2.26 2.11 2.02 1.84 1.72 1.91 2.04 1.68 1.54 1.53 1.53 1.63
0.88 0.93 0.89 0.89 0.87 0.81 0.85 1.04 0.99 1.02 0.99 0.91 0.76 0.74 0.77 0.73 0.69 0.72 0.84 1.10 1.31 1.54 1.87 2.10 1.93 1.74 1.56 1.50 1.56 1.75 2.12 2.19 1.93 1.87 1.85 1.78 1.97 2.04 1.74 1.58 1.48 1.38 1.53
0.83 0.87 0.89 0.87 0.87 0.89 0.91 0.99 1.00 1.05 0.95 0.90 0.85 0.80 0.77 0.73 0.64 0.71 0.73 0.84 0.87 1.06 1.38 1.71 1.90 1.86 1.78 1.72 1.70 1.86 2.13 2.07 1.83 1.83 1.90 1.84 1.82 1.88 1.82 1.67 1.51 1.38 1.43
0.90 0.90 0.95 0.96 1.00 1.05 1.04 1.06 1.11 1.11 1.06 1.04 1.02 1.00 0.83 0.82 0.72 0.72 0.72 0.74 0.82 0.79 0.94 1.11 1.37 1.59 1.79 1.90 2.04 2.22 2.12 1.94 1.77 1.76 1.85 1.76 1.67 1.78 1.83 1.74 1.51 1.38 1.36
0.95 1.06 1.10 1.16 1.14 1.17 1.20 1.17 1.20 1.11 1.13 1.15 1.06 1.04 0.94 0.92 0.86 0.73 0.79 0.82 0.84 0.79 0.82 0.73 0.79 0.91 1.19 1.56 2.08 2.38 2.08 1.95 1.86 1.71 1.68 1.65 1.69 1.84 1.86 1.65 1.47 1.35 1.31
1.26 1.41 1.49 1.43 1.43 1.45 1.45 1.41 1.48 1.37 1.21 1.23 1.14 1.07 0.95 0.86 0.91 0.89 0.87 0.86 0.91 0.87 0.81 0.71 0.67 0.57 0.67 1.04 1.66 2.10 2.06 1.99 1.87 1.81 1.71 1.67 1.75 1.86 1.84 1.68 1.51 1.48 1.42
1.63 1.76 1.70 1.79 1.82 1.70 1.71 1.77 1.83 1.78 1.54 1.41 1.48 1.37 1.08 0.84 0.89 0.88 0.85 0.89 0.95 1.05 1.08 0.95 0.80 0.72 0.67 0.75 1.12 1.61 1.97 2.02 2.05 1.92 1.81 1.79 1.77 1.79 1.80 1.76 1.71 1.65 1.59
1.86 1.90 1.99 2.09 2.13 2.12 2.08 1.97 2.06 2.17 1.91 1.69 1.81 2.09 1.68 1.27 0.91 0.72 0.81 0.86 0.96 1.19 1.26 1.08 0.89 0.81 0.79 0.87 0.78 1.04 1.47 1.88 2.06 2.06 1.97 1.92 1.92 1.94 1.93 1.74 1.63 1.66 1.69
2.09 2.12 2.18 2.26 2.29 2.14 2.14 2.23 2.34 2.68 2.50 2.15 1.94 2.18 1.99 1.67 1.35 0.93 0.85 0.90 0.99 1.16 1.28 1.30 1.18 1.10 1.01 1.02 0.97 0.79 0.98 1.39 1.76 2.06 2.13 2.07 1.98 2.16 2.26 1.94 1.65 1.56 1.53
2.03 2.15 2.16 2.16 2.15 2.10 2.17 2.23 2.27 2.66 2.86 2.58 2.24 1.87 1.65 1.62 1.69 1.39 1.01 0.96 1.05 1.06 1.18 1.26 1.21 1.26 1.25 1.25 1.22 0.96 0.89 1.11 1.42 1.87 2.20 2.40 2.19 2.01 1.99 1.98 1.85 1.64 1.46
1.90 1.93 1.95 2.04 2.08 2.13 2.18 2.35 2.47 2.71 2.75 2.74 2.55 2.35 2.12 1.82 1.48 1.52 1.45 1.20 1.16 1.07 1.16 1.29 1.33 1.40 1.43 1.45 1.56 1.29 1.01 0.90 1.08 1.50 2.01 2.44 2.46 2.26 2.05 1.93 1.88 1.83 1.59
1.87 1.81 1.78 1.85 1.98 2.14 2.20 2.29 2.44 2.67 2.79 2.87 2.79 2.52 2.42 2.25 1.95 1.82 1.57 1.42 1.42 1.22 1.19 1.23 1.28 1.40 1.55 1.63 1.58 1.68 1.35 0.95 0.85 1.13 1.47 1.93 2.37 2.53 2.44 2.32 2.19 2.15 1.97
1.59 1.62 1.69 1.79 1.93 2.05 2.12 2.24 2.38 2.43 2.55 2.79 2.80 2.62 2.41 2.19 2.16 2.06 1.94 1.62 1.45 1.28 1.26 1.25 1.21 1.27 1.30 1.57 1.69 1.77 1.44 1.09 0.83 0.85 1.02 1.24 1.58 2.03 2.42 2.50 2.49 2.56 2.54
1.50 1.43 1.47 1.58 1.81 2.00 2.08 2.18 2.19 2.17 2.22 2.41 2.41 2.47 2.44 2.15 2.08 1.99 1.98 2.05 1.78 1.58 1.42 1.24 1.13 1.18 1.23 1.42 1.72 1.79 1.36 1.16 0.95 0.82 0.86 1.04 1.13 1.25 1.61 2.16 2.48 2.62 2.82
1.31 1.25 1.26 1.30 1.44 1.66 1.92 2.08 2.02 1.94 1.90 2.06 2.13 2.22 2.33 2.34 2.24 2.15 2.12 2.17 2.12 1.86 1.67 1.45 1.23 1.11 1.18 1.30 1.69 1.62 1.41 1.24 1.11 0.96 0.88 0.94 0.93 0.97 1.09 1.38 1.69 1.85 2.03
1.11 1.10 1.10 1.16 1.28 1.39 1.60 1.84 1.94 1.87 1.84 1.91 2.02 2.14 2.26 2.37 2.40 2.21 2.17 2.14 2.00 1.91 1.75 1.46 1.23 1.14 1.21 1.20 1.53 1.55 1.51 1.49 1.25 1.09 1.02 0.99 1.00 0.92 0.94 1.06 1.16 1.20 1.16
0.90 0.93 1.10 1.16 1.22 1.29 1.48 1.74 1.91 1.92 1.85 1.86 1.84 1.91 2.08 2.16 2.37 2.33 2.25 2.14 2.01 1.85 1.72 1.56 1.34 1.18 1.22 1.27 1.37 1.48 1.49 1.39 1.20 1.16 1.03 0.99 0.98 0.97 0.94 1.00 1.12 1.05 0.95
0.65 0.77 0.91 0.96 1.00 1.05 1.23 1.52 1.71 1.75 1.72 1.64 1.62 1.74 1.95 2.12 2.33 2.41 2.36 2.22 2.13 2.00 1.89 1.82 1.64 1.42 1.30 1.34 1.43 1.54 1.53 1.46 1.37 1.36 1.22 1.10 1.03 0.97 0.97 0.96 1.03 1.09 1.04
0.66 0.78 0.87 0.92 0.94 1.00 1.04 1.15 1.31 1.43 1.41 1.36 1.39 1.46 1.51 1.71 2.00 2.16 2.17 2.19 2.22 2.20 2.17 2.02 1.82 1.68 1.53 1.43 1.49 1.53 1.53 1.58 1.44 1.44 1.42 1.33 1.26 1.18 1.09 1.03 1.02 1.04 1.08
0.61 0.70 0.78 0.84 0.91 0.97 0.98 0.99 1.01 1.08 1.09 1.15 1.20 1.25 1.30 1.35 1.58 1.75 1.83 2.01 2.24 2.26 2.28 2.21 1.98 1.81 1.67 1.54 1.60 1.69 1.77 1.76 1.59 1.38 1.37 1.31 1.35 1.31 1.20 1.04 0.98 0.97 1.02
0.53 0.60 0.67 0.70 0.76 0.85 0.94 0.97 0.84 0.80 0.88 0.99 1.02 0.99 1.01 1.09 1.22 1.32 1.39 1.74 2.08 2.27 2.26 2.22 2.07 1.96 1.70 1.57 1.44 1.45 1.67 1.91 1.89 1.77 1.65 1.40 1.34 1.27 1.20 1.14 1.03 0.97 0.98
0.50 0.55 0.54 0.58 0.69 0.73 0.88 0.87 0.71 0.69 0.72 0.81 0.90 0.90 0.80 0.78 0.83 0.91 0.99 1.16 1.44 1.68 1.96 2.14 2.07 1.87 1.65 1.55 1.50 1.52 1.57 1.70 1.85 1.74 1.77 1.75 1.65 1.59 1.49 1.35 1.33 1.23 1.13
0.47 0.49 0.48 0.49 0.55 0.68 0.73 0.59 0.58 0.62 0.68 0.72 0.77 0.84 0.77 0.67 0.74 0.79 0.88 0.95 0.96 1.04 1.33 1.67 1.79 1.74 1.81 1.69 1.65 1.58 1.55 1.63 1.67 1.63 1.78 1.84 1.80 1.75 1.67 1.64 1.71 1.56 1.39
0.54 0.53 0.54 0.54 0.53 0.59 0.58 0.48 0.51 0.54 0.60 0.64 0.72 0.81 0.87 0.79 0.79 0.90 0.90 0.93 0.89 0.85 1.04 1.05 1.21 1.50 1.69 1.78 1.75 1.83 1.99 1.95 1.81 1.67 1.62 1.68 1.59 1.57 1.59 1.59 1.69 1.61 1.50
0.52 0.55 0.59 0.59 0.54 0.52 0.53 0.45 0.47 0.53 0.58 0.63 0.64 0.69 0.77 0.75 0.90 0.99 0.99 1.12 1.10 0.98 1.10 1.16 1.19 1.22 1.35 1.51 1.63 1.71 1.80 1.86 1.83 1.72 1.52 1.39 1.34 1.34 1.40 1.41 1.42 1.49 1.47
0.31 0.41 0.44 0.47 0.51 0.50 0.62 0.50 0.50 0.53 0.62 0.72 0.73 0.71 0.84 0.84 0.91 0.91 0.89 1.12 1.14 1.02 0.94 1.01 1.02 0.99 0.93 1.04 1.26 1.43 1.64 1.75 1.72 1.63 1.38 1.24 1.21 1.24 1.23 1.10 1.01 1.05 1.06

GEFSMA_prec_meanprecacc_234.txt.gz
Total_Precipitation_Accumulation
0.84 0.88 0.83 0.86 0.77 0.77 0.88 0.96 0.98 1.00 0.90 0.76 0.72 0.71 0.76 0.69 0.67 0.76 0.98 1.26 1.68 2.02 2.12 1.93 1.73 1.62 1.55 1.54 1.75 1.94 2.22 2.34 2.18 2.08 1.89 1.77 1.96 2.08 1.72 1.57 1.56 1.55 1.68
0.88 0.94 0.90 0.90 0.87 0.81 0.85 1.05 1.00 1.03 1.01 0.93 0.77 0.76 0.77 0.73 0.69 0.72 0.85 1.11 1.32 1.57 1.92 2.16 2.00 1.80 1.62 1.55 1.61 1.80 2.17 2.25 1.98 1.91 1.88 1.81 2.00 2.08 1.78 1.61 1.50 1.40 1.56
0.84 0.88 0.90 0.87 0.88 0.89 0.92 1.00 1.01 1.05 0.97 0.91 0.87 0.82 0.78 0.73 0.64 0.71 0.73 0.84 0.87 1.07 1.41 1.76 1.96 1.91 1.83 1.78 1.74 1.89 2.17 2.11 1.87 1.86 1.93 1.87 1.85 1.91 1.86 1.70 1.55 1.41 1.45
0.91 0.91 0.95 0.96 1.01 1.05 1.04 1.07 1.12 1.11 1.06 1.06 1.03 1.01 0.83 0.82 0.73 0.72 0.72 0.74 0.82 0.79 0.94 1.12 1.39 1.62 1.83 1.96 2.09 2.26 2.16 1.98 1.81 1.79 1.88 1.78 1.70 1.80 1.86 1.78 1.55 1.42 1.39
0.97 1.07 1.10 1.17 1.14 1.17 1.20 1.17 1.21 1.12 1.13 1.16 1.07 1.05 0.94 0.92 0.86 0.73 0.79 0.82 0.84 0.79 0.82 0.74 0.80 0.92 1.21 1.60 2.12 2.42 2.12 1.99 1.90 1.74 1.71 1.67 1.71 1.86 1.88 1.69 1.51 1.38 1.34
1.26 1.41 1.49 1.44 1.43 1.45 1.46 1.42 1.49 1.37 1.21 1.24 1.15 1.08 0.96 0.87 0.92 0.90 0.87 0.86 0.91 0.88 0.81 0.71 0.68 0.57 0.68 1.06 1.69 2.12 2.08 2.02 1.91 1.83 1.73 1.69 1.76 1.88 1.85 1.70 1.55 1.51 1.44
1.64 1.76 1.70 1.79 1.82 1.70 1.72 1.78 1.84 1.78 1.54 1.41 1.49 1.38 1.09 0.85 0.91 0.89 0.86 0.89 0.95 1.05 1.08 0.95 0.81 0.72 0.67 0.76 1.14 1.64 1.99 2.04 2.07 1.94 1.83 1.81 1.78 1.80 1.82 1.79 1.75 1.69 1.62
1.87 1.90 1.99 2.09 2.14 2.14 2.09 1.98 2.07 2.18 1.92 1.69 1.81 2.11 1.70 1.28 0.93 0.74 0.81 0.86 0.96 1.19 1.27 1.09 0.89 0.82 0.80 0.88 0.79 1.05 1.48 1.89 2.08 2.08 1.99 1.94 1.94 1.97 1.99 1.85 1.72 1.70 1.72
2.10 2.13 2.19 2.27 2.30 2.15 2.16 2.24 2.36 2.70 2.52 2.15 1.95 2.19 2.01 1.68 1.37 0.94 0.85 0.90 0.99 1.16 1.29 1.31 1.19 1.11 1.02 1.04 0.99 0.81 0.99 1.40 1.78 2.08 2.17 2.14 2.04 2.24 2.43 2.13 1.77 1.61 1.55
2.04 2.16 2.17 2.17 2.16 2.10 2.17 2.24 2.29 2.68 2.87 2.59 2.25 1.88 1.66 1.62 1.69 1.39 1.02 0.97 1.05 1.06 1.18 1.26 1.21 1.27 1.26 1.26 1.23 0.97 0.90 1.12 1.43 1.89 2.26 2.53 2.36 2.19 2.18 2.13 1.94 1.68 1.48
1.90 1.94 1.96 2.06 2.09 2.13 2.19 2.35 2.48 2.72 2.75 2.74 2.56 2.36 2.13 1.82 1.48 1.53 1.46 1.20 1.16 1.07 1.17 1.30 1.35 1.42 1.44 1.47 1.58 1.30 1.01 0.91 1.09 1.52 2.06 2.53 2.57 2.37 2.14 2.00 1.92 1.86 1.61
1.88 1.82 1.80 1.87 1.99 2.14 2.20 2.30 2.44 2.68 2.80 2.88 2.80 2.52 2.43 2.26 1.95 1.82 1.57 1.42 1.42 1.22 1.19 1.24 1.28 1.41 1.56 1.64 1.59 1.69 1.36 0.95 0.86 1.13 1.48 1.97 2.41 2.56 2.47 2.34 2.22 2.18 2.00
1.61 1.66 1.74 1.81 1.94 2.05 2.12 2.25 2.39 2.44 2.56 2.80 2.81 2.63 2.42 2.21 2.17 2.06 1.95 1.62 1.45 1.28 1.26 1.27 1.23 1.29 1.31 1.58 1.71 1.78 1.45 1.09 0.84 0.85 1.03 1.26 1.60 2.05 2.44 2.52 2.50 2.58 2.57
1.53 1.48 1.52 1.61 1.82 2.01 2.09 2.18 2.20 2.17 2.22 2.42 2.42 2.48 2.45 2.16 2.09 2.00 1.99 2.06 1.78 1.59 1.43 1.25 1.13 1.18 1.23 1.43 1.73 1.81 1.37 1.17 0.95 0.82 0.86 1.06 1.15 1.26 1.63 2.18 2.49 2.64 2.83
1.32 1.28 1.32 1.35 1.47 1.68 1.93 2.08 2.03 1.95 1.91 2.07 2.14 2.23 2.35 2.36 2.25 2.15 2.12 2.18 2.13 1.88 1.68 1.46 1.23 1.11 1.18 1.31 1.71 1.64 1.43 1.26 1.13 0.96 0.88 0.94 0.94 0.98 1.10 1.39 1.70 1.86 2.05
1.11 1.11 1.11 1.18 1.33 1.45 1.64 1.86 1.95 1.88 1.86 1.93 2.03 2.16 2.28 2.38 2.41 2.21 2.17 2.15 2.01 1.91 1.76 1.46 1.23 1.15 1.21 1.20 1.55 1.57 1.52 1.52 1.28 1.11 1.03 1.00 1.00 0.92 0.94 1.07 1.16 1.20 1.17
0.90 0.93 1.10 1.16 1.23 1.31 1.51 1.77 1.95 1.96 1.88 1.88 1.85 1.93 2.09 2.18 2.38 2.34 2.25 2.14 2.02 1.86 1.73 1.56 1.35 1.19 1.24 1.30 1.40 1.49 1.49 1.39 1.22 1.17 1.05 1.00 0.99 0.97 0.95 1.00 1.13 1.06 0.97
0.66 0.77 0.91 0.96 1.01 1.05 1.23 1.53 1.73 1.77 1.75 1.66 1.64 1.76 1.97 2.13 2.34 2.42 2.36 2.22 2.13 2.00 1.90 1.83 1.65 1.43 1.31 1.35 1.49 1.59 1.55 1.47 1.39 1.38 1.23 1.11 1.04 0.98 0.98 0.97 1.03 1.10 1.05
0.67 0.79 0.87 0.92 0.95 1.01 1.05 1.16 1.32 1.44 1.43 1.37 1.41 1.47 1.52 1.72 2.00 2.16 2.18 2.19 2.23 2.21 2.18 2.03 1.83 1.69 1.54 1.44 1.53 1.59 1.57 1.61 1.47 1.46 1.43 1.35 1.28 1.19 1.09 1.04 1.02 1.04 1.08
0.63 0.72 0.79 0.86 0.92 0.97 0.98 0.99 1.02 1.09 1.11 1.16 1.22 1.26 1.31 1.36 1.59 1.75 1.84 2.02 2.25 2.27 2.30 2.22 2.00 1.82 1.68 1.56 1.63 1.74 1.81 1.79 1.63 1.42 1.40 1.33 1.37 1.32 1.21 1.05 0.99 0.98 1.03
0.55 0.63 0.70 0.72 0.77 0.86 0.95 0.97 0.85 0.81 0.91 1.02 1.03 1.00 1.02 1.10 1.23 1.33 1.39 1.74 2.09 2.27 2.27 2.22 2.08 1.96 1.71 1.58 1.46 1.48 1.70 1.95 1.93 1.82 1.69 1.43 1.37 1.29 1.22 1.17 1.05 0.98 0.99
0.52 0.57 0.56 0.59 0.70 0.74 0.88 0.87 0.71 0.70 0.75 0.85 0.94 0.92 0.81 0.80 0.84 0.92 1.00 1.17 1.45 1.69 1.97 2.15 2.07 1.87 1.65 1.55 1.51 1.54 1.60 1.73 1.88 1.77 1.80 1.78 1.69 1.62 1.51 1.37 1.34 1.24 1.14
0.48 0.50 0.49 0.50 0.55 0.68 0.73 0.60 0.58 0.62 0.70 0.76 0.81 0.87 0.79 0.68 0.75 0.80 0.90 0.97 0.98 1.06 1.34 1.68 1.81 1.75 1.81 1.69 1.65 1.59 1.56 1.65 1.69 1.65 1.81 1.87 1.83 1.78 1.69 1.66 1.73 1.57 1.39
0.55 0.55 0.56 0.55 0.54 0.59 0.59 0.48 0.52 0.54 0.60 0.66 0.75 0.84 0.89 0.81 0.81 0.91 0.91 0.95 0.90 0.86 1.06 1.06 1.23 1.52 1.69 1.78 1.75 1.83 1.99 1.96 1.82 1.68 1.63 1.69 1.61 1.59 1.62 1.62 1.72 1.64 1.52
0.53 0.56 0.60 0.60 0.55 0.52 0.54 0.46 0.48 0.54 0.59 0.63 0.66 0.72 0.81 0.78 0.92 1.01 1.01 1.13 1.11 0.98 1.11 1.17 1.20 1.24 1.36 1.52 1.64 1.71 1.80 1.86 1.83 1.72 1.53 1.40 1.35 1.34 1.40 1.42 1.43 1.50 1.49
0.31 0.42 0.45 0.48 0.51 0.50 0.63 0.51 0.51 0.54 0.62 0.72 0.74 0.72 0.86 0.86 0.94 0.93 0.91 1.14 1.15 1.03 0.95 1.02 1.03 1.00 0.94 1.05 1.26 1.43 1.64 1.75 1.72 1.63 1.38 1.24 1.21 1.25 1.24 1.10 1.02 1.06 1.07

GEFSMA_prec_meanprecacc_240.txt.gz
Total_Precipitation_Accumulation
0.87 0.89 0.84 0.86 0.78 0.77 0.88 0.96 0.99 1.00 0.91 0.77 0.72 0.71 0.76 0.70 0.67 0.76 0.99 1.30 1.74 2.10 2.19 2.00 1.80 1.69 1.64 1.64 1.86 2.08 2.35 2.47 2.30 2.15 1.94 1.83 2.01 2.15 1.80 1.66 1.64 1.65 1.77
0.92 0.96 0.91 0.91 0.88 0.81 0.86 1.06 1.02 1.04 1.02 0.94 0.78 0.76 0.78 0.73 0.70 0.73 0.85 1.12 1.36 1.62 1.97 2.22 2.06 1.86 1.68 1.61 1.67 1.86 2.23 2.32 2.06 1.96 1.93 1.86 2.06 2.13 1.83 1.66 1.55 1.45 1.61
0.87 0.91 0.91 0.88 0.88 0.90 0.93 1.01 1.02 1.07 0.99 0.92 0.88 0.82 0.78 0.74 0.65 0.71 0.73 0.85 0.88 1.09 1.45 1.81 2.03 1.99 1.90 1.84 1.80 1.94 2.22 2.17 1.92 1.91 1.98 1.92 1.89 1.96 1.90 1.75 1.60 1.46 1.50
0.93 0.92 0.95 0.97 1.01 1.05 1.04 1.08 1.13 1.12 1.07 1.07 1.05 1.02 0.84 0.83 0.73 0.73 0.72 0.75 0.82 0.80 0.96 1.14 1.43 1.68 1.90 2.03 2.16 2.33 2.23 2.04 1.85 1.84 1.93 1.83 1.74 1.84 1.89 1.81 1.59 1.46 1.43
0.98 1.07 1.10 1.17 1.14 1.17 1.21 1.18 1.21 1.12 1.13 1.16 1.10 1.08 0.96 0.93 0.87 0.74 0.80 0.82 0.84 0.79 0.82 0.74 0.81 0.95 1.25 1.65 2.18 2.47 2.17 2.03 1.93 1.78 1.75 1.71 1.74 1.88 1.91 1.71 1.54 1.41 1.38
1.28 1.42 1.50 1.44 1.43 1.45 1.46 1.42 1.49 1.38 1.22 1.25 1.15 1.11 1.00 0.89 0.93 0.90 0.87 0.86 0.91 0.88 0.81 0.71 0.68 0.58 0.70 1.08 1.72 2.16 2.12 2.06 1.95 1.87 1.76 1.71 1.79 1.90 1.88 1.73 1.59 1.56 1.50
1.65 1.78 1.71 1.79 1.83 1.71 1.72 1.78 1.84 1.79 1.57 1.43 1.49 1.39 1.11 0.86 0.92 0.90 0.86 0.89 0.95 1.05 1.08 0.95 0.81 0.72 0.68 0.77 1.16 1.67 2.03 2.08 2.11 1.97 1.86 1.83 1.80 1.82 1.84 1.81 1.78 1.73 1.67
1.88 1.92 2.01 2.10 2.15 2.14 2.09 1.99 2.09 2.19 1.94 1.70 1.82 2.11 1.71 1.30 0.94 0.75 0.82 0.86 0.96 1.19 1.27 1.09 0.90 0.82 0.80 0.88 0.80 1.07 1.50 1.92 2.11 2.11 2.02 1.96 1.96 1.99 2.01 1.88 1.76 1.74 1.74
2.11 2.14 2.19 2.27 2.30 2.16 2.16 2.25 2.37 2.72 2.53 2.16 1.95 2.20 2.01 1.68 1.38 0.96 0.86 0.91 0.99 1.16 1.29 1.31 1.19 1.12 1.02 1.04 1.00 0.82 1.00 1.42 1.81 2.12 2.20 2.19 2.08 2.28 2.48 2.24 1.87 1.69 1.58
2.05 2.16 2.17 2.17 2.16 2.10 2.18 2.25 2.30 2.69 2.88 2.60 2.26 1.89 1.66 1.63 1.69 1.40 1.03 0.98 1.06 1.07 1.18 1.27 1.22 1.28 1.26 1.26 1.24 0.98 0.91 1.13 1.45 1.92 2.31 2.62 2.44 2.25 2.28 2.35 2.14 1.80 1.53
1.91 1.94 1.96 2.06 2.10 2.14 2.20 2.36 2.49 2.73 2.76 2.75 2.57 2.37 2.14 1.84 1.49 1.54 1.47 1.21 1.17 1.08 1.17 1.30 1.35 1.42 1.44 1.47 1.59 1.31 1.02 0.92 1.11 1.54 2.09 2.61 2.75 2.49 2.28 2.23 2.13 1.97 1.67
1.89 1.83 1.80 1.87 2.00 2.16 2.21 2.31 2.45 2.69 2.80 2.89 2.80 2.53 2.44 2.28 1.97 1.84 1.58 1.43 1.43 1.22 1.19 1.24 1.28 1.42 1.56 1.64 1.59 1.70 1.36 0.96 0.86 1.14 1.50 2.01 2.57 2.75 2.64 2.50 2.33 2.25 2.05
1.62 1.66 1.74 1.82 1.95 2.06 2.13 2.25 2.40 2.45 2.56 2.80 2.81 2.63 2.43 2.23 2.21 2.08 1.96 1.63 1.46 1.28 1.27 1.27 1.23 1.29 1.31 1.58 1.71 1.78 1.45 1.11 0.84 0.85 1.04 1.28 1.67 2.18 2.56 2.59 2.55 2.63 2.61
1.54 1.49 1.53 1.61 1.82 2.01 2.09 2.19 2.21 2.18 2.23 2.42 2.42 2.48 2.46 2.19 2.13 2.02 2.00 2.07 1.79 1.59 1.43 1.25 1.13 1.18 1.23 1.43 1.73 1.81 1.37 1.19 0.96 0.83 0.87 1.07 1.17 1.30 1.66 2.20 2.51 2.66 2.86
1.34 1.30 1.33 1.36 1.47 1.68 1.93 2.09 2.04 1.95 1.91 2.07 2.14 2.24 2.36 2.39 2.29 2.18 2.14 2.19 2.13 1.88 1.68 1.46 1.23 1.12 1.19 1.31 1.71 1.64 1.43 1.27 1.16 0.98 0.89 0.95 0.95 1.00 1.11 1.41 1.72 1.87 2.06
1.12 1.12 1.12 1.19 1.33 1.45 1.64 1.87 1.96 1.89 1.87 1.93 2.04 2.16 2.29 2.39 2.43 2.23 2.19 2.16 2.01 1.92 1.77 1.46 1.24 1.15 1.22 1.21 1.57 1.58 1.53 1.52 1.30 1.14 1.05 1.02 1.02 0.95 0.96 1.08 1.18 1.21 1.18
0.91 0.94 1.11 1.18 1.24 1.32 1.51 1.77 1.95 1.96 1.89 1.88 1.85 1.93 2.10 2.18 2.40 2.35 2.26 2.15 2.03 1.86 1.73 1.56 1.36 1.21 1.26 1.31 1.42 1.50 1.50 1.40 1.23 1.19 1.06 1.02 1.00 0.99 0.96 1.01 1.13 1.07 0.97
0.66 0.78 0.92 0.97 1.02 1.06 1.24 1.53 1.73 1.78 1.76 1.67 1.64 1.76 1.98 2.14 2.35 2.42 2.37 2.22 2.14 2.01 1.90 1.83 1.65 1.45 1.33 1.37 1.51 1.60 1.56 1.48 1.40 1.40 1.25 1.13 1.05 0.99 0.98 0.98 1.04 1.11 1.06
0.68 0.80 0.88 0.94 0.96 1.02 1.06 1.16 1.32 1.45 1.44 1.39 1.41 1.48 1.52 1.72 2.01 2.17 2.18 2.19 2.23 2.22 2.19 2.04 1.84 1.71 1.56 1.45 1.55 1.61 1.58 1.62 1.48 1.47 1.45 1.36 1.29 1.20 1.10 1.05 1.03 1.05 1.09
0.64 0.74 0.80 0.87 0.94 0.99 0.99 1.00 1.02 1.09 1.11 1.18 1.24 1.27 1.31 1.37 1.59 1.76 1.84 2.02 2.25 2.28 2.31 2.23 2.00 1.84 1.70 1.58 1.65 1.78 1.83 1.80 1.64 1.43 1.41 1.35 1.39 1.34 1.23 1.07 0.99 0.99 1.03
0.56 0.64 0.71 0.73 0.78 0.87 0.96 0.98 0.85 0.81 0.91 1.03 1.04 1.00 1.03 1.11 1.24 1.34 1.40 1.75 2.09 2.28 2.28 2.23 2.08 1.97 1.73 1.61 1.50 1.53 1.73 1.97 1.94 1.84 1.71 1.45 1.39 1.30 1.23 1.18 1.06 0.99 1.00
0.53 0.58 0.56 0.60 0.70 0.74 0.89 0.88 0.72 0.70 0.76 0.85 0.94 0.92 0.82 0.80 0.85 0.93 1.01 1.18 1.46 1.70 1.99 2.17 2.09 1.89 1.67 1.58 1.55 1.59 1.63 1.77 1.94 1.82 1.83 1.81 1.71 1.64 1.53 1.38 1.36 1.25 1.15
0.49 0.51 0.49 0.50 0.55 0.69 0.73 0.60 0.59 0.62 0.70 0.76 0.81 0.87 0.79 0.68 0.75 0.81 0.91 0.98 0.99 1.07 1.36 1.71 1.83 1.76 1.82 1.71 1.68 1.62 1.60 1.69 1.75 1.72 1.86 1.90 1.84 1.79 1.71 1.69 1.77 1.59 1.41
0.56 0.55 0.56 0.55 0.54 0.60 0.59 0.49 0.52 0.55 0.61 0.66 0.75 0.84 0.89 0.81 0.81 0.91 0.92 0.95 0.91 0.86 1.07 1.09 1.26 1.54 1.71 1.80 1.77 1.85 2.02 1.99 1.85 1.72 1.67 1.72 1.63 1.61 1.63 1.64 1.75 1.68 1.55
0.54 0.57 0.61 0.61 0.55 0.52 0.54 0.47 0.48 0.54 0.60 0.64 0.66 0.73 0.81 0.79 0.92 1.01 1.01 1.14 1.11 0.99 1.12 1.19 1.24 1.28 1.39 1.54 1.65 1.72 1.81 1.88 1.86 1.76 1.56 1.43 1.37 1.37 1.42 1.43 1.45 1.53 1.52
0.33 0.43 0.46 0.48 0.52 0.51 0.63 0.52 0.52 0.55 0.63 0.73 0.75 0.72 0.86 0.87 0.94 0.93 0.91 1.14 1.16 1.03 0.96 1.03 1.05 1.03 0.98 1.08 1.29 1.45 1.65 1.75 1.73 1.64 1.39 1.25 1.23 1.26 1.25 1.11 1.02 1.07 1.08

GEFSMA_prec_meanprecacc_246.txt.gz
Total_Precipitation_Accumulation
0.95 0.94 0.87 0.89 0.80 0.79 0.89 0.97 1.00 1.01 0.92 0.78 0.72 0.72 0.77 0.70 0.69 0.78 1.03 1.35 1.79 2.16 2.27 2.10 1.92 1.84 1.81 1.78 1.98 2.18 2.43 2.54 2.38 2.23 1.99 1.87 2.06 2.18 1.85 1.72 1.71 1.72 1.85
0.96 0.99 0.95 0.94 0.90 0.83 0.87 1.07 1.03 1.06 1.03 0.94 0.78 0.76 0.78 0.74 0.71 0.74 0.88 1.16 1.40 1.66 2.03 2.29 2.14 1.94 1.80 1.77 1.80 1.96 2.31 2.39 2.13 2.02 1.97 1.91 2.12 2.20 1.88 1.72 1.60 1.50 1.69
0.91 0.95 0.95 0.91 0.90 0.92 0.95 1.02 1.04 1.09 0.99 0.93 0.89 0.83 0.78 0.74 0.65 0.72 0.74 0.86 0.91 1.13 1.50 1.86 2.10 2.07 1.98 1.96 1.90 2.03 2.30 2.23 1.98 1.97 2.05 1.99 1.97 2.04 1.97 1.80 1.64 1.51 1.56
1.00 0.99 1.00 1.00 1.03 1.08 1.07 1.09 1.15 1.14 1.08 1.09 1.07 1.03 0.84 0.83 0.74 0.73 0.73 0.76 0.84 0.81 0.97 1.16 1.47 1.74 1.96 2.10 2.23 2.41 2.33 2.13 1.95 1.92 2.00 1.91 1.82 1.92 1.96 1.87 1.64 1.51 1.47
1.03 1.13 1.16 1.20 1.17 1.20 1.22 1.19 1.22 1.13 1.14 1.17 1.10 1.10 0.98 0.93 0.87 0.74 0.80 0.84 0.85 0.79 0.83 0.74 0.82 0.98 1.31 1.72 2.25 2.54 2.23 2.09 2.00 1.84 1.80 1.76 1.79 1.92 1.94 1.75 1.57 1.45 1.41
1.31 1.47 1.55 1.47 1.46 1.47 1.47 1.44 1.50 1.39 1.25 1.28 1.17 1.13 1.02 0.90 0.94 0.91 0.88 0.87 0.91 0.88 0.81 0.71 0.68 0.59 0.72 1.13 1.77 2.22 2.17 2.09 1.98 1.90 1.79 1.74 1.81 1.92 1.90 1.75 1.61 1.58 1.52
1.68 1.81 1.74 1.82 1.84 1.73 1.74 1.80 1.86 1.80 1.59 1.46 1.51 1.40 1.12 0.87 0.93 0.90 0.86 0.90 0.95 1.05 1.08 0.95 0.81 0.72 0.68 0.78 1.18 1.71 2.07 2.12 2.14 1.99 1.88 1.86 1.82 1.84 1.86 1.84 1.80 1.75 1.69
1.89 1.94 2.02 2.11 2.16 2.16 2.10 2.01 2.14 2.26 1.99 1.73 1.83 2.11 1.72 1.32 0.96 0.76 0.82 0.86 0.96 1.19 1.27 1.09 0.90 0.82 0.80 0.88 0.81 1.08 1.52 1.94 2.13 2.13 2.05 2.00 1.99 2.01 2.03 1.90 1.78 1.77 1.76
2.11 2.15 2.20 2.28 2.31 2.16 2.17 2.27 2.41 2.74 2.54 2.17 1.96 2.21 2.03 1.70 1.40 0.97 0.87 0.91 0.99 1.16 1.29 1.31 1.19 1.12 1.02 1.04 1.00 0.82 1.01 1.43 1.82 2.14 2.24 2.23 2.11 2.31 2.50 2.25 1.89 1.72 1.61
2.06 2.18 2.18 2.18 2.16 2.11 2.18 2.25 2.31 2.71 2.90 2.61 2.27 1.89 1.67 1.64 1.70 1.42 1.04 0.98 1.06 1.07 1.18 1.27 1.22 1.28 1.26 1.26 1.24 0.98 0.92 1.14 1.47 1.95 2.34 2.65 2.47 2.29 2.32 2.38 2.18 1.83 1.57
1.93 1.96 1.97 2.06 2.10 2.15 2.20 2.37 2.49 2.75 2.78 2.77 2.58 2.37 2.15 1.84 1.50 1.55 1.49 1.22 1.17 1.08 1.17 1.30 1.35 1.42 1.45 1.47 1.59 1.31 1.02 0.93 1.12 1.56 2.11 2.63 2.79 2.54 2.33 2.28 2.21 2.04 1.74
1.90 1.84 1.81 1.88 2.01 2.17 2.22 2.31 2.46 2.70 2.82 2.90 2.81 2.54 2.45 2.28 1.98 1.84 1.59 1.44 1.44 1.23 1.20 1.24 1.28 1.42 1.56 1.64 1.59 1.70 1.37 0.97 0.87 1.15 1.52 2.04 2.67 2.88 2.71 2.59 2.48 2.37 2.14
1.63 1.68 1.75 1.83 1.96 2.07 2.14 2.26 2.40 2.46 2.57 2.81 2.81 2.64 2.43 2.24 2.22 2.09 1.97 1.64 1.46 1.29 1.27 1.27 1.23 1.29 1.31 1.59 1.71 1.78 1.46 1.12 0.85 0.86 1.04 1.30 1.81 2.39 2.69 2.71 2.70 2.78 2.71
1.54 1.50 1.54 1.62 1.83 2.02 2.10 2.20 2.22 2.19 2.24 2.43 2.43 2.49 2.46 2.20 2.14 2.03 2.01 2.08 1.80 1.60 1.43 1.25 1.14 1.18 1.23 1.43 1.73 1.81 1.38 1.21 0.97 0.83 0.87 1.08 1.25 1.42 1.79 2.32 2.64 2.78 2.94
1.35 1.31 1.34 1.37 1.48 1.69 1.94 2.09 2.05 1.96 1.92 2.08 2.15 2.24 2.36 2.39 2.30 2.19 2.14 2.19 2.14 1.89 1.69 1.47 1.24 1.12 1.19 1.31 1.71 1.64 1.43 1.29 1.17 0.98 0.89 0.96 0.99 1.05 1.18 1.48 1.80 1.94 2.12
1.12 1.12 1.12 1.20 1.34 1.45 1.65 1.87 1.96 1.89 1.87 1.93 2.04 2.17 2.30 2.40 2.44 2.24 2.19 2.16 2.02 1.93 1.78 1.47 1.24 1.15 1.22 1.21 1.57 1.58 1.53 1.53 1.31 1.15 1.06 1.03 1.04 0.98 1.00 1.12 1.21 1.24 1.20
0.91 0.94 1.11 1.18 1.24 1.32 1.51 1.78 1.96 1.97 1.89 1.89 1.86 1.94 2.10 2.19 2.40 2.36 2.27 2.16 2.03 1.87 1.74 1.57 1.36 1.21 1.26 1.31 1.42 1.50 1.50 1.40 1.23 1.20 1.08 1.04 1.01 1.00 0.98 1.03 1.15 1.08 0.98
0.67 0.79 0.92 0.97 1.02 1.07 1.25 1.54 1.74 1.78 1.76 1.67 1.64 1.76 1.98 2.14 2.35 2.43 2.38 2.23 2.14 2.01 1.90 1.84 1.66 1.46 1.34 1.38 1.51 1.60 1.56 1.48 1.40 1.41 1.28 1.15 1.07 1.00 0.99 0.99 1.04 1.11 1.06
0.68 0.80 0.89 0.94 0.96 1.02 1.06 1.17 1.33 1.45 1.44 1.39 1.42 1.48 1.53 1.73 2.01 2.17 2.18 2.20 2.24 2.22 2.19 2.04 1.85 1.73 1.58 1.46 1.56 1.61 1.59 1.62 1.48 1.49 1.46 1.37 1.31 1.22 1.12 1.06 1.04 1.06 1.10
0.65 0.74 0.81 0.88 0.94 0.99 1.00 1.00 1.02 1.09 1.11 1.18 1.24 1.27 1.31 1.37 1.60 1.76 1.84 2.03 2.26 2.28 2.31 2.24 2.01 1.85 1.72 1.59 1.66 1.78 1.84 1.80 1.64 1.44 1.42 1.35 1.39 1.35 1.24 1.08 1.00 0.99 1.04
0.57 0.64 0.71 0.74 0.78 0.87 0.96 0.99 0.85 0.81 0.91 1.03 1.05 1.01 1.03 1.11 1.24 1.35 1.41 1.76 2.10 2.29 2.29 2.24 2.09 1.99 1.75 1.64 1.51 1.54 1.73 1.97 1.95 1.84 1.71 1.45 1.39 1.31 1.25 1.20 1.08 1.00 1.00
0.54 0.58 0.57 0.60 0.71 0.75 0.90 0.89 0.73 0.71 0.76 0.86 0.94 0.93 0.82 0.80 0.85 0.94 1.02 1.18 1.46 1.71 1.99 2.18 2.10 1.90 1.69 1.60 1.57 1.60 1.64 1.78 1.94 1.83 1.84 1.81 1.72 1.65 1.54 1.40 1.37 1.27 1.16
0.50 0.52 0.50 0.51 0.56 0.69 0.74 0.61 0.60 0.64 0.71 0.76 0.82 0.87 0.79 0.69 0.76 0.81 0.91 0.99 1.00 1.07 1.37 1.72 1.84 1.77 1.84 1.73 1.71 1.65 1.62 1.70 1.77 1.73 1.88 1.91 1.85 1.80 1.72 1.71 1.78 1.60 1.42
0.57 0.57 0.57 0.56 0.55 0.60 0.60 0.50 0.54 0.57 0.62 0.67 0.76 0.85 0.90 0.82 0.81 0.92 0.93 0.96 0.91 0.87 1.08 1.10 1.26 1.55 1.72 1.81 1.79 1.88 2.04 2.00 1.87 1.75 1.72 1.75 1.65 1.65 1.66 1.66 1.78 1.69 1.56
0.56 0.59 0.62 0.62 0.56 0.53 0.56 0.48 0.50 0.56 0.60 0.65 0.67 0.73 0.82 0.79 0.93 1.02 1.02 1.14 1.12 1.00 1.13 1.20 1.24 1.29 1.41 1.56 1.68 1.75 1.84 1.91 1.89 1.79 1.61 1.47 1.42 1.42 1.46 1.46 1.48 1.55 1.53
0.35 0.45 0.47 0.49 0.52 0.51 0.65 0.53 0.53 0.56 0.64 0.73 0.76 0.73 0.87 0.88 0.96 0.95 0.92 1.15 1.17 1.05 0.96 1.04 1.05 1.04 0.99 1.09 1.31 1.47 1.68 1.79 1.76 1.67 1.42 1.29 1.26 1.30 1.29 1.15 1.06 1.09 1.10

GEFSMA_prec_meanprecacc_252.txt.gz
Total_Precipitation_Accumulation
1.02 1.01 0.92 0.93 0.84 0.82 0.92 0.99 1.01 1.03 0.93 0.79 0.73 0.73 0.78 0.71 0.69 0.80 1.06 1.39 1.84 2.22 2.35 2.19 2.01 1.95 1.96 1.89 2.10 2.30 2.52 2.64 2.46 2.30 2.06 1.93 2.11 2.23 1.90 1.79 1.77 1.78 1.93
1.03 1.06 1.00 0.96 0.92 0.85 0.90 1.09 1.05 1.08 1.04 0.94 0.79 0.77 0.79 0.74 0.71 0.76 0.90 1.19 1.43 1.70 2.09 2.35 2.21 2.04 1.94 1.89 1.91 2.06 2.39 2.45 2.19 2.09 2.04 1.96 2.19 2.28 1.97 1.81 1.70 1.59 1.79
0.94 0.99 0.99 0.92 0.92 0.94 0.96 1.04 1.06 1.10 1.00 0.93 0.91 0.84 0.79 0.75 0.66 0.75 0.76 0.88 0.93 1.16 1.53 1.91 2.16 2.14 2.08 2.07 2.01 2.12 2.37 2.30 2.04 2.03 2.13 2.10 2.06 2.12 2.06 1.88 1.71 1.59 1.65
1.01 1.01 1.04 1.01 1.05 1.09 1.08 1.11 1.17 1.16 1.09 1.10 1.08 1.03 0.85 0.85 0.75 0.76 0.76 0.79 0.85 0.82 0.98 1.18 1.49 1.77 2.02 2.18 2.32 2.49 2.41 2.22 2.02 2.00 2.09 1.98 1.88 1.98 2.03 1.94 1.70 1.55 1.51
1.04 1.15 1.20 1.23 1.19 1.22 1.24 1.21 1.24 1.15 1.15 1.18 1.11 1.11 0.99 0.94 0.88 0.75 0.82 0.85 0.85 0.79 0.83 0.75 0.83 1.00 1.33 1.75 2.31 2.61 2.31 2.16 2.05 1.88 1.85 1.81 1.84 1.96 1.98 1.79 1.61 1.48 1.44
1.33 1.50 1.59 1.50 1.49 1.50 1.49 1.46 1.52 1.40 1.27 1.30 1.18 1.14 1.03 0.90 0.95 0.92 0.88 0.88 0.92 0.88 0.82 0.72 0.69 0.59 0.73 1.14 1.81 2.26 2.22 2.15 2.02 1.93 1.81 1.76 1.83 1.94 1.92 1.77 1.63 1.61 1.56
1.69 1.83 1.77 1.86 1.87 1.75 1.77 1.84 1.89 1.84 1.63 1.47 1.53 1.41 1.13 0.88 0.94 0.91 0.86 0.90 0.95 1.06 1.08 0.95 0.82 0.73 0.68 0.79 1.20 1.73 2.11 2.16 2.18 2.02 1.90 1.88 1.84 1.86 1.88 1.85 1.83 1.77 1.73
1.91 1.96 2.04 2.14 2.18 2.18 2.14 2.03 2.16 2.31 2.03 1.75 1.85 2.14 1.75 1.34 0.97 0.76 0.83 0.86 0.96 1.20 1.27 1.09 0.90 0.82 0.81 0.89 0.82 1.09 1.53 1.96 2.16 2.16 2.08 2.02 2.01 2.03 2.06 1.92 1.81 1.79 1.79
2.14 2.17 2.22 2.29 2.32 2.17 2.17 2.28 2.42 2.76 2.56 2.18 1.97 2.22 2.07 1.75 1.42 0.98 0.87 0.91 0.99 1.17 1.29 1.31 1.19 1.12 1.03 1.05 1.01 0.83 1.02 1.44 1.84 2.16 2.27 2.26 2.14 2.34 2.54 2.29 1.92 1.75 1.63
2.08 2.19 2.20 2.20 2.17 2.11 2.19 2.26 2.32 2.73 2.93 2.64 2.29 1.90 1.69 1.65 1.73 1.45 1.05 0.99 1.06 1.07 1.19 1.27 1.22 1.28 1.26 1.27 1.25 0.99 0.92 1.15 1.48 1.96 2.36 2.68 2.49 2.32 2.36 2.42 2.21 1.87 1.60
1.94 1.98 2.00 2.09 2.11 2.16 2.21 2.37 2.50 2.77 2.80 2.79 2.61 2.39 2.17 1.85 1.51 1.57 1.52 1.24 1.18 1.08 1.17 1.30 1.35 1.42 1.45 1.47 1.59 1.32 1.03 0.93 1.13 1.57 2.12 2.65 2.81 2.56 2.36 2.31 2.25 2.07 1.77
1.92 1.85 1.82 1.89 2.03 2.18 2.23 2.32 2.48 2.72 2.83 2.91 2.82 2.55 2.46 2.29 2.00 1.87 1.61 1.46 1.45 1.24 1.20 1.24 1.28 1.42 1.56 1.64 1.59 1.70 1.37 0.98 0.88 1.15 1.52 2.05 2.68 2.89 2.73 2.61 2.51 2.41 2.18
1.64 1.68 1.76 1.84 1.98 2.08 2.15 2.27 2.42 2.47 2.59 2.82 2.82 2.64 2.44 2.25 2.23 2.10 1.98 1.66 1.48 1.30 1.28 1.28 1.23 1.29 1.31 1.59 1.71 1.78 1.46 1.13 0.86 0.87 1.05 1.31 1.82 2.41 2.71 2.73 2.72 2.83 2.77
1.55 1.51 1.55 1.63 1.84 2.03 2.11 2.21 2.23 2.20 2.26 2.44 2.43 2.49 2.47 2.20 2.15 2.04 2.02 2.09 1.82 1.62 1.45 1.26 1.14 1.18 1.23 1.43 1.73 1.81 1.39 1.22 0.98 0.85 0.88 1.09 1.26 1.46 1.82 2.34 2.67 2.87 3.05
1.35 1.31 1.35 1.38 1.48 1.70 1.94 2.10 2.06 1.97 1.94 2.09 2.16 2.25 2.37 2.40 2.31 2.20 2.16 2.21 2.16 1.91 1.72 1.49 1.25 1.12 1.19 1.31 1.72 1.64 1.44 1.29 1.18 1.00 0.90 0.97 1.01 1.13 1.23 1.52 1.85 2.04 2.24
1.13 1.12 1.13 1.20 1.34 1.45 1.65 1.87 1.97 1.90 1.88 1.94 2.05 2.18 2.30 2.40 2.45 2.25 2.20 2.17 2.03 1.95 1.80 1.49 1.25 1.15 1.22 1.21 1.57 1.58 1.53 1.53 1.32 1.16 1.06 1.04 1.08 1.06 1.06 1.17 1.27 1.32 1.30
0.91 0.94 1.12 1.18 1.24 1.32 1.52 1.79 1.96 1.97 1.89 1.89 1.86 1.94 2.11 2.20 2.41 2.37 2.28 2.17 2.04 1.88 1.75 1.58 1.36 1.21 1.26 1.31 1.42 1.51 1.51 1.41 1.24 1.21 1.08 1.04 1.04 1.06 1.04 1.08 1.20 1.14 1.04
0.67 0.79 0.92 0.97 1.03 1.07 1.25 1.54 1.74 1.79 1.77 1.68 1.65 1.77 1.98 2.15 2.36 2.44 2.39 2.24 2.15 2.02 1.91 1.84 1.67 1.46 1.34 1.38 1.52 1.61 1.57 1.49 1.41 1.43 1.29 1.16 1.09 1.04 1.04 1.03 1.07 1.14 1.09
0.69 0.80 0.89 0.94 0.97 1.03 1.07 1.17 1.33 1.46 1.45 1.40 1.43 1.49 1.54 1.74 2.02 2.18 2.19 2.21 2.24 2.22 2.20 2.05 1.85 1.73 1.58 1.46 1.57 1.62 1.59 1.63 1.50 1.52 1.49 1.39 1.32 1.25 1.16 1.10 1.07 1.08 1.12
0.65 0.74 0.82 0.88 0.95 1.00 1.01 1.02 1.04 1.11 1.13 1.19 1.25 1.28 1.32 1.38 1.61 1.78 1.86 2.04 2.27 2.29 2.32 2.24 2.02 1.86 1.74 1.60 1.67 1.79 1.85 1.81 1.66 1.47 1.44 1.37 1.41 1.37 1.27 1.11 1.02 1.01 1.05
0.57 0.65 0.72 0.74 0.79 0.88 0.97 1.00 0.87 0.83 0.93 1.04 1.06 1.01 1.04 1.13 1.26 1.37 1.43 1.78 2.13 2.31 2.30 2.25 2.10 2.00 1.78 1.65 1.52 1.54 1.74 1.98 1.96 1.87 1.74 1.47 1.40 1.32 1.26 1.22 1.10 1.02 1.01
0.55 0.60 0.57 0.61 0.71 0.75 0.91 0.90 0.74 0.72 0.77 0.87 0.96 0.94 0.83 0.81 0.86 0.95 1.03 1.20 1.48 1.73 2.01 2.20 2.11 1.91 1.70 1.61 1.58 1.60 1.65 1.79 1.96 1.85 1.87 1.84 1.74 1.67 1.56 1.42 1.40 1.29 1.18
0.51 0.53 0.51 0.51 0.56 0.70 0.75 0.62 0.61 0.65 0.71 0.77 0.83 0.89 0.81 0.70 0.77 0.82 0.92 1.00 1.01 1.09 1.38 1.74 1.85 1.78 1.85 1.74 1.72 1.66 1.64 1.72 1.79 1.76 1.91 1.94 1.89 1.84 1.75 1.73 1.80 1.62 1.43
0.59 0.58 0.60 0.57 0.55 0.61 0.61 0.50 0.55 0.57 0.63 0.68 0.77 0.86 0.91 0.84 0.83 0.94 0.94 0.97 0.92 0.88 1.10 1.12 1.28 1.56 1.73 1.82 1.80 1.90 2.05 2.01 1.88 1.77 1.75 1.78 1.68 1.67 1.68 1.68 1.79 1.70 1.56
0.57 0.61 0.64 0.64 0.57 0.55 0.58 0.49 0.51 0.56 0.61 0.66 0.68 0.75 0.83 0.81 0.95 1.05 1.04 1.16 1.14 1.02 1.15 1.22 1.26 1.31 1.42 1.57 1.69 1.77 1.85 1.92 1.90 1.81 1.63 1.49 1.44 1.43 1.47 1.48 1.50 1.57 1.54
0.36 0.46 0.49 0.51 0.55 0.53 0.67 0.56 0.55 0.57 0.65 0.74 0.77 0.75 0.89 0.90 1.00 0.98 0.95 1.18 1.20 1.08 1.00 1.06 1.07 1.06 1.00 1.11 1.33 1.48 1.69 1.80 1.77 1.69 1.45 1.31 1.29 1.32 1.31 1.16 1.07 1.11 1.12